<?xml version="1.0" encoding="UTF-8" standalone="yes"?>
<gpx
 xmlns="http://www.topografix.com/GPX/1/1"
 creator="OziExplorer Version 3956f - http://www.oziexplorer.com"
 version="1.1"
 xmlns:xsi="http://www.w3.org/2001/XMLSchema-instance"
 xsi:schemaLocation="http://www.topografix.com/GPX/1/1 http://www.topografix.com/GPX/1/1/gpx.xsd">
<metadata>
 <time>2021-07-14T05:58:38Z</time>
 <bounds minlat="31.757380" minlon="35.095310" maxlat="31.784240" maxlon="35.131690"/>
</metadata>
<trk>
 <name>sataf-eitan_udl_30 km</name>
 <desc>sataf-eitan_udl_30 km</desc>
<trkseg>
<trkpt lat="31.7747100" lon="35.1251700">
<ele>699.570007</ele>
<time>2021-07-14T08:46:18.024Z</time>
</trkpt>
<trkpt lat="31.7756400" lon="35.1257600">
<ele>690.000000</ele>
<time>2021-07-14T08:46:18.024Z</time>
</trkpt>
<trkpt lat="31.7757400" lon="35.1258300">
<ele>691.299988</ele>
<time>2021-07-14T08:46:18.024Z</time>
</trkpt>
<trkpt lat="31.7761800" lon="35.1260400">
<ele>696.349976</ele>
<time>2021-07-14T08:46:18.024Z</time>
</trkpt>
<trkpt lat="31.7772900" lon="35.1267300">
<ele>684.590027</ele>
<time>2021-07-14T08:46:18.024Z</time>
</trkpt>
<trkpt lat="31.7773800" lon="35.1268000">
<ele>682.859985</ele>
<time>2021-07-14T08:46:18.024Z</time>
</trkpt>
<trkpt lat="31.7774500" lon="35.1268600">
<ele>681.650024</ele>
<time>2021-07-14T08:46:18.024Z</time>
</trkpt>
<trkpt lat="31.7775100" lon="35.1269200">
<ele>680.539978</ele>
<time>2021-07-14T08:46:18.024Z</time>
</trkpt>
<trkpt lat="31.7776100" lon="35.1270500">
<ele>676.810059</ele>
<time>2021-07-14T08:46:18.024Z</time>
</trkpt>
<trkpt lat="31.7777000" lon="35.1271800">
<ele>673.559998</ele>
<time>2021-07-14T08:46:18.024Z</time>
</trkpt>
<trkpt lat="31.7777500" lon="35.1272800">
<ele>671.800049</ele>
<time>2021-07-14T08:46:18.024Z</time>
</trkpt>
<trkpt lat="31.7777800" lon="35.1273400">
<ele>670.959961</ele>
<time>2021-07-14T08:46:18.024Z</time>
</trkpt>
<trkpt lat="31.7778000" lon="35.1274300">
<ele>670.580017</ele>
<time>2021-07-14T08:46:18.024Z</time>
</trkpt>
<trkpt lat="31.7778200" lon="35.1275200">
<ele>670.260010</ele>
<time>2021-07-14T08:46:18.024Z</time>
</trkpt>
<trkpt lat="31.7778300" lon="35.1276200">
<ele>670.220032</ele>
<time>2021-07-14T08:46:18.024Z</time>
</trkpt>
<trkpt lat="31.7778200" lon="35.1277300">
<ele>670.489990</ele>
<time>2021-07-14T08:46:18.024Z</time>
</trkpt>
<trkpt lat="31.7778000" lon="35.1279400">
<ele>670.810059</ele>
<time>2021-07-14T08:46:18.024Z</time>
</trkpt>
<trkpt lat="31.7777800" lon="35.1280100">
<ele>670.979980</ele>
<time>2021-07-14T08:46:18.024Z</time>
</trkpt>
<trkpt lat="31.7777600" lon="35.1280800">
<ele>671.020020</ele>
<time>2021-07-14T08:46:18.024Z</time>
</trkpt>
<trkpt lat="31.7777300" lon="35.1281500">
<ele>671.169983</ele>
<time>2021-07-14T08:46:18.024Z</time>
</trkpt>
<trkpt lat="31.7776800" lon="35.1282500">
<ele>671.349976</ele>
<time>2021-07-14T08:46:18.024Z</time>
</trkpt>
<trkpt lat="31.7775800" lon="35.1284300">
<ele>671.639954</ele>
<time>2021-07-14T08:46:18.024Z</time>
</trkpt>
<trkpt lat="31.7775600" lon="35.1284800">
<ele>671.739990</ele>
<time>2021-07-14T08:46:18.024Z</time>
</trkpt>
<trkpt lat="31.7775500" lon="35.1285400">
<ele>671.919983</ele>
<time>2021-07-14T08:46:18.024Z</time>
</trkpt>
<trkpt lat="31.7775500" lon="35.1286000">
<ele>672.140015</ele>
<time>2021-07-14T08:46:18.024Z</time>
</trkpt>
<trkpt lat="31.7775600" lon="35.1286600">
<ele>672.179993</ele>
<time>2021-07-14T08:46:18.024Z</time>
</trkpt>
<trkpt lat="31.7775800" lon="35.1287100">
<ele>672.189941</ele>
<time>2021-07-14T08:46:18.024Z</time>
</trkpt>
<trkpt lat="31.7776400" lon="35.1287900">
<ele>672.179993</ele>
<time>2021-07-14T08:46:18.024Z</time>
</trkpt>
<trkpt lat="31.7776600" lon="35.1288100">
<ele>672.159973</ele>
<time>2021-07-14T08:46:18.024Z</time>
</trkpt>
<trkpt lat="31.7776800" lon="35.1288200">
<ele>672.159973</ele>
<time>2021-07-14T08:46:18.024Z</time>
</trkpt>
<trkpt lat="31.7777200" lon="35.1288600">
<ele>672.079956</ele>
<time>2021-07-14T08:46:18.024Z</time>
</trkpt>
<trkpt lat="31.7777500" lon="35.1289100">
<ele>672.070007</ele>
<time>2021-07-14T08:46:18.024Z</time>
</trkpt>
<trkpt lat="31.7777700" lon="35.1289700">
<ele>672.280029</ele>
<time>2021-07-14T08:46:18.024Z</time>
</trkpt>
<trkpt lat="31.7777800" lon="35.1290300">
<ele>672.510010</ele>
<time>2021-07-14T08:46:18.024Z</time>
</trkpt>
<trkpt lat="31.7777700" lon="35.1290900">
<ele>672.700012</ele>
<time>2021-07-14T08:46:18.024Z</time>
</trkpt>
<trkpt lat="31.7777500" lon="35.1291500">
<ele>672.850037</ele>
<time>2021-07-14T08:46:18.024Z</time>
</trkpt>
<trkpt lat="31.7778000" lon="35.1291400">
<ele>672.900024</ele>
<time>2021-07-14T08:46:18.024Z</time>
</trkpt>
<trkpt lat="31.7779000" lon="35.1290500">
<ele>672.579956</ele>
<time>2021-07-14T08:46:18.024Z</time>
</trkpt>
<trkpt lat="31.7779400" lon="35.1290900">
<ele>672.720032</ele>
<time>2021-07-14T08:46:18.024Z</time>
</trkpt>
<trkpt lat="31.7779100" lon="35.1292000">
<ele>673.179993</ele>
<time>2021-07-14T08:46:18.024Z</time>
</trkpt>
<trkpt lat="31.7779000" lon="35.1292600">
<ele>673.519958</ele>
<time>2021-07-14T08:46:18.024Z</time>
</trkpt>
<trkpt lat="31.7779400" lon="35.1293000">
<ele>673.680054</ele>
<time>2021-07-14T08:46:18.024Z</time>
</trkpt>
<trkpt lat="31.7780000" lon="35.1293200">
<ele>673.660034</ele>
<time>2021-07-14T08:46:18.024Z</time>
</trkpt>
<trkpt lat="31.7787900" lon="35.1293200">
<ele>665.320007</ele>
<time>2021-07-14T08:46:18.024Z</time>
</trkpt>
<trkpt lat="31.7789700" lon="35.1293600">
<ele>663.489990</ele>
<time>2021-07-14T08:46:18.024Z</time>
</trkpt>
<trkpt lat="31.7790700" lon="35.1294200">
<ele>664.669983</ele>
<time>2021-07-14T08:46:18.024Z</time>
</trkpt>
<trkpt lat="31.7791100" lon="35.1294800">
<ele>665.919983</ele>
<time>2021-07-14T08:46:18.024Z</time>
</trkpt>
<trkpt lat="31.7791300" lon="35.1295400">
<ele>667.109985</ele>
<time>2021-07-14T08:46:18.024Z</time>
</trkpt>
<trkpt lat="31.7792800" lon="35.1297300">
<ele>668.239990</ele>
<time>2021-07-14T08:46:18.024Z</time>
</trkpt>
<trkpt lat="31.7794000" lon="35.1298200">
<ele>666.469971</ele>
<time>2021-07-14T08:46:18.024Z</time>
</trkpt>
<trkpt lat="31.7794800" lon="35.1298600">
<ele>664.899963</ele>
<time>2021-07-14T08:46:18.024Z</time>
</trkpt>
<trkpt lat="31.7795200" lon="35.1298700">
<ele>663.820007</ele>
<time>2021-07-14T08:46:18.024Z</time>
</trkpt>
<trkpt lat="31.7795800" lon="35.1299200">
<ele>662.800049</ele>
<time>2021-07-14T08:46:18.024Z</time>
</trkpt>
<trkpt lat="31.7798000" lon="35.1303600">
<ele>662.380005</ele>
<time>2021-07-14T08:46:18.024Z</time>
</trkpt>
<trkpt lat="31.7800300" lon="35.1306700">
<ele>659.500000</ele>
<time>2021-07-14T08:46:18.024Z</time>
</trkpt>
<trkpt lat="31.7800800" lon="35.1307800">
<ele>661.739990</ele>
<time>2021-07-14T08:46:18.024Z</time>
</trkpt>
<trkpt lat="31.7801700" lon="35.1308800">
<ele>663.040039</ele>
<time>2021-07-14T08:46:18.024Z</time>
</trkpt>
<trkpt lat="31.7803300" lon="35.1309200">
<ele>663.190002</ele>
<time>2021-07-14T08:46:18.024Z</time>
</trkpt>
<trkpt lat="31.7804100" lon="35.1309200">
<ele>663.679993</ele>
<time>2021-07-14T08:46:18.024Z</time>
</trkpt>
<trkpt lat="31.7805200" lon="35.1308900">
<ele>663.790039</ele>
<time>2021-07-14T08:46:18.024Z</time>
</trkpt>
<trkpt lat="31.7806900" lon="35.1308800">
<ele>663.119995</ele>
<time>2021-07-14T08:46:18.024Z</time>
</trkpt>
<trkpt lat="31.7807900" lon="35.1309300">
<ele>663.929993</ele>
<time>2021-07-14T08:46:18.024Z</time>
</trkpt>
<trkpt lat="31.7810700" lon="35.1309100">
<ele>661.970032</ele>
<time>2021-07-14T08:46:18.024Z</time>
</trkpt>
<trkpt lat="31.7812000" lon="35.1309300">
<ele>661.619995</ele>
<time>2021-07-14T08:46:18.024Z</time>
</trkpt>
<trkpt lat="31.7814500" lon="35.1310800">
<ele>662.880005</ele>
<time>2021-07-14T08:46:18.024Z</time>
</trkpt>
<trkpt lat="31.7816300" lon="35.1312400">
<ele>663.850037</ele>
<time>2021-07-14T08:46:18.024Z</time>
</trkpt>
<trkpt lat="31.7817400" lon="35.1312800">
<ele>664.359985</ele>
<time>2021-07-14T08:46:18.024Z</time>
</trkpt>
<trkpt lat="31.7818500" lon="35.1313900">
<ele>666.709961</ele>
<time>2021-07-14T08:46:18.024Z</time>
</trkpt>
<trkpt lat="31.7819000" lon="35.1314000">
<ele>666.610046</ele>
<time>2021-07-14T08:46:18.024Z</time>
</trkpt>
<trkpt lat="31.7819300" lon="35.1314500">
<ele>667.669983</ele>
<time>2021-07-14T08:46:18.024Z</time>
</trkpt>
<trkpt lat="31.7820300" lon="35.1314800">
<ele>666.549988</ele>
<time>2021-07-14T08:46:18.024Z</time>
</trkpt>
<trkpt lat="31.7820600" lon="35.1315200">
<ele>666.830017</ele>
<time>2021-07-14T08:46:18.024Z</time>
</trkpt>
<trkpt lat="31.7820900" lon="35.1315300">
<ele>666.400024</ele>
<time>2021-07-14T08:46:18.024Z</time>
</trkpt>
<trkpt lat="31.7821100" lon="35.1314900">
<ele>665.130005</ele>
<time>2021-07-14T08:46:18.024Z</time>
</trkpt>
<trkpt lat="31.7821100" lon="35.1314900">
<ele>665.130005</ele>
<time>2021-07-14T08:46:18.024Z</time>
</trkpt>
<trkpt lat="31.7820900" lon="35.1315300">
<ele>666.400024</ele>
<time>2021-07-14T08:46:18.024Z</time>
</trkpt>
<trkpt lat="31.7821900" lon="35.1316000">
<ele>665.559998</ele>
<time>2021-07-14T08:46:18.024Z</time>
</trkpt>
<trkpt lat="31.7823200" lon="35.1316900">
<ele>666.130005</ele>
<time>2021-07-14T08:46:18.024Z</time>
</trkpt>
<trkpt lat="31.7823700" lon="35.1316800">
<ele>666.040039</ele>
<time>2021-07-14T08:46:18.024Z</time>
</trkpt>
<trkpt lat="31.7824100" lon="35.1316500">
<ele>665.780029</ele>
<time>2021-07-14T08:46:18.024Z</time>
</trkpt>
<trkpt lat="31.7824500" lon="35.1316700">
<ele>666.000000</ele>
<time>2021-07-14T08:46:18.024Z</time>
</trkpt>
<trkpt lat="31.7825000" lon="35.1316700">
<ele>665.989990</ele>
<time>2021-07-14T08:46:18.024Z</time>
</trkpt>
<trkpt lat="31.7825200" lon="35.1316600">
<ele>666.510010</ele>
<time>2021-07-14T08:46:18.024Z</time>
</trkpt>
<trkpt lat="31.7825600" lon="35.1316300">
<ele>667.390015</ele>
<time>2021-07-14T08:46:18.024Z</time>
</trkpt>
<trkpt lat="31.7825800" lon="35.1314400">
<ele>666.330017</ele>
<time>2021-07-14T08:46:18.024Z</time>
</trkpt>
<trkpt lat="31.7825800" lon="35.1313300">
<ele>665.639954</ele>
<time>2021-07-14T08:46:18.024Z</time>
</trkpt>
<trkpt lat="31.7825600" lon="35.1310200">
<ele>664.950012</ele>
<time>2021-07-14T08:46:18.024Z</time>
</trkpt>
<trkpt lat="31.7825900" lon="35.1309700">
<ele>665.960022</ele>
<time>2021-07-14T08:46:18.024Z</time>
</trkpt>
<trkpt lat="31.7826400" lon="35.1309500">
<ele>667.179993</ele>
<time>2021-07-14T08:46:18.024Z</time>
</trkpt>
<trkpt lat="31.7828200" lon="35.1307400">
<ele>673.510010</ele>
<time>2021-07-14T08:46:18.024Z</time>
</trkpt>
<trkpt lat="31.7828700" lon="35.1306400">
<ele>675.850037</ele>
<time>2021-07-14T08:46:18.024Z</time>
</trkpt>
<trkpt lat="31.7830100" lon="35.1305100">
<ele>679.259949</ele>
<time>2021-07-14T08:46:18.024Z</time>
</trkpt>
<trkpt lat="31.7831300" lon="35.1304500">
<ele>681.890015</ele>
<time>2021-07-14T08:46:18.024Z</time>
</trkpt>
<trkpt lat="31.7831900" lon="35.1304200">
<ele>683.160034</ele>
<time>2021-07-14T08:46:18.024Z</time>
</trkpt>
<trkpt lat="31.7832800" lon="35.1304100">
<ele>684.949951</ele>
<time>2021-07-14T08:46:18.024Z</time>
</trkpt>
<trkpt lat="31.7834300" lon="35.1296600">
<ele>682.289978</ele>
<time>2021-07-14T08:46:18.024Z</time>
</trkpt>
<trkpt lat="31.7837300" lon="35.1293800">
<ele>684.190002</ele>
<time>2021-07-14T08:46:18.024Z</time>
</trkpt>
<trkpt lat="31.7838300" lon="35.1291700">
<ele>686.320007</ele>
<time>2021-07-14T08:46:18.024Z</time>
</trkpt>
<trkpt lat="31.7838900" lon="35.1288700">
<ele>689.219971</ele>
<time>2021-07-14T08:46:18.024Z</time>
</trkpt>
<trkpt lat="31.7838400" lon="35.1286800">
<ele>690.330017</ele>
<time>2021-07-14T08:46:18.024Z</time>
</trkpt>
<trkpt lat="31.7835800" lon="35.1286000">
<ele>686.719971</ele>
<time>2021-07-14T08:46:18.024Z</time>
</trkpt>
<trkpt lat="31.7827700" lon="35.1284500">
<ele>682.419983</ele>
<time>2021-07-14T08:46:18.024Z</time>
</trkpt>
<trkpt lat="31.7824500" lon="35.1283900">
<ele>680.929993</ele>
<time>2021-07-14T08:46:18.024Z</time>
</trkpt>
<trkpt lat="31.7823000" lon="35.1283400">
<ele>680.520020</ele>
<time>2021-07-14T08:46:18.024Z</time>
</trkpt>
<trkpt lat="31.7821000" lon="35.1282900">
<ele>680.369995</ele>
<time>2021-07-14T08:46:18.024Z</time>
</trkpt>
<trkpt lat="31.7818100" lon="35.1279000">
<ele>686.530029</ele>
<time>2021-07-14T08:46:18.024Z</time>
</trkpt>
<trkpt lat="31.7817900" lon="35.1277500">
<ele>687.960022</ele>
<time>2021-07-14T08:46:18.024Z</time>
</trkpt>
<trkpt lat="31.7817900" lon="35.1277500">
<ele>687.960022</ele>
<time>2021-07-14T08:46:18.024Z</time>
</trkpt>
<trkpt lat="31.7817100" lon="35.1272100">
<ele>694.500000</ele>
<time>2021-07-14T08:46:18.024Z</time>
</trkpt>
<trkpt lat="31.7815800" lon="35.1269200">
<ele>693.919983</ele>
<time>2021-07-14T08:46:18.024Z</time>
</trkpt>
<trkpt lat="31.7815200" lon="35.1259800">
<ele>694.449951</ele>
<time>2021-07-14T08:46:18.024Z</time>
</trkpt>
<trkpt lat="31.7815800" lon="35.1254900">
<ele>694.889954</ele>
<time>2021-07-14T08:46:18.024Z</time>
</trkpt>
<trkpt lat="31.7815800" lon="35.1248900">
<ele>688.499939</ele>
<time>2021-07-14T08:46:18.024Z</time>
</trkpt>
<trkpt lat="31.7820100" lon="35.1245800">
<ele>689.470032</ele>
<time>2021-07-14T08:46:18.024Z</time>
</trkpt>
<trkpt lat="31.7827000" lon="35.1240100">
<ele>694.029968</ele>
<time>2021-07-14T08:46:18.024Z</time>
</trkpt>
<trkpt lat="31.7831200" lon="35.1232000">
<ele>695.600037</ele>
<time>2021-07-14T08:46:18.024Z</time>
</trkpt>
<trkpt lat="31.7833000" lon="35.1228800">
<ele>695.660034</ele>
<time>2021-07-14T08:46:18.024Z</time>
</trkpt>
<trkpt lat="31.7831600" lon="35.1227800">
<ele>693.139954</ele>
<time>2021-07-14T08:46:18.024Z</time>
</trkpt>
<trkpt lat="31.7830700" lon="35.1227000">
<ele>692.950012</ele>
<time>2021-07-14T08:46:18.024Z</time>
</trkpt>
<trkpt lat="31.7829900" lon="35.1227000">
<ele>692.199951</ele>
<time>2021-07-14T08:46:18.024Z</time>
</trkpt>
<trkpt lat="31.7829400" lon="35.1227700">
<ele>690.850037</ele>
<time>2021-07-14T08:46:18.024Z</time>
</trkpt>
<trkpt lat="31.7829800" lon="35.1228700">
<ele>691.250000</ele>
<time>2021-07-14T08:46:18.024Z</time>
</trkpt>
<trkpt lat="31.7830000" lon="35.1229900">
<ele>691.709961</ele>
<time>2021-07-14T08:46:18.024Z</time>
</trkpt>
<trkpt lat="31.7829700" lon="35.1230700">
<ele>691.289978</ele>
<time>2021-07-14T08:46:18.024Z</time>
</trkpt>
<trkpt lat="31.7829200" lon="35.1231000">
<ele>690.470032</ele>
<time>2021-07-14T08:46:18.024Z</time>
</trkpt>
<trkpt lat="31.7828600" lon="35.1231500">
<ele>689.559998</ele>
<time>2021-07-14T08:46:18.024Z</time>
</trkpt>
<trkpt lat="31.7827600" lon="35.1232000">
<ele>687.679993</ele>
<time>2021-07-14T08:46:18.024Z</time>
</trkpt>
<trkpt lat="31.7826300" lon="35.1233400">
<ele>685.350037</ele>
<time>2021-07-14T08:46:18.024Z</time>
</trkpt>
<trkpt lat="31.7825100" lon="35.1235400">
<ele>684.479980</ele>
<time>2021-07-14T08:46:18.024Z</time>
</trkpt>
<trkpt lat="31.7823400" lon="35.1238100">
<ele>682.289978</ele>
<time>2021-07-14T08:46:18.024Z</time>
</trkpt>
<trkpt lat="31.7821400" lon="35.1239900">
<ele>679.059998</ele>
<time>2021-07-14T08:46:18.024Z</time>
</trkpt>
<trkpt lat="31.7819400" lon="35.1241600">
<ele>677.630005</ele>
<time>2021-07-14T08:46:18.024Z</time>
</trkpt>
<trkpt lat="31.7820100" lon="35.1239400">
<ele>672.969971</ele>
<time>2021-07-14T08:46:18.024Z</time>
</trkpt>
<trkpt lat="31.7820100" lon="35.1238800">
<ele>671.379944</ele>
<time>2021-07-14T08:46:18.024Z</time>
</trkpt>
<trkpt lat="31.7820100" lon="35.1238800">
<ele>671.379944</ele>
<time>2021-07-14T08:46:18.024Z</time>
</trkpt>
<trkpt lat="31.7820100" lon="35.1238800">
<ele>671.379944</ele>
<time>2021-07-14T08:46:18.024Z</time>
</trkpt>
<trkpt lat="31.7820500" lon="35.1236000">
<ele>673.210022</ele>
<time>2021-07-14T08:46:18.024Z</time>
</trkpt>
<trkpt lat="31.7820000" lon="35.1234000">
<ele>675.859985</ele>
<time>2021-07-14T08:46:18.024Z</time>
</trkpt>
<trkpt lat="31.7819700" lon="35.1233900">
<ele>675.799988</ele>
<time>2021-07-14T08:46:18.024Z</time>
</trkpt>
<trkpt lat="31.7819300" lon="35.1233900">
<ele>675.289978</ele>
<time>2021-07-14T08:46:18.024Z</time>
</trkpt>
<trkpt lat="31.7818300" lon="35.1234000">
<ele>673.140015</ele>
<time>2021-07-14T08:46:18.024Z</time>
</trkpt>
<trkpt lat="31.7817400" lon="35.1234000">
<ele>671.429993</ele>
<time>2021-07-14T08:46:18.024Z</time>
</trkpt>
<trkpt lat="31.7816900" lon="35.1233900">
<ele>670.640015</ele>
<time>2021-07-14T08:46:18.024Z</time>
</trkpt>
<trkpt lat="31.7812600" lon="35.1233200">
<ele>671.429993</ele>
<time>2021-07-14T08:46:18.024Z</time>
</trkpt>
<trkpt lat="31.7809000" lon="35.1232500">
<ele>670.190002</ele>
<time>2021-07-14T08:46:18.024Z</time>
</trkpt>
<trkpt lat="31.7805700" lon="35.1230400">
<ele>672.390015</ele>
<time>2021-07-14T08:46:18.024Z</time>
</trkpt>
<trkpt lat="31.7801900" lon="35.1226900">
<ele>672.020020</ele>
<time>2021-07-14T08:46:18.024Z</time>
</trkpt>
<trkpt lat="31.7800300" lon="35.1224000">
<ele>670.630005</ele>
<time>2021-07-14T08:46:18.024Z</time>
</trkpt>
<trkpt lat="31.7800200" lon="35.1219900">
<ele>671.609985</ele>
<time>2021-07-14T08:46:18.024Z</time>
</trkpt>
<trkpt lat="31.7800700" lon="35.1214400">
<ele>676.530029</ele>
<time>2021-07-14T08:46:18.024Z</time>
</trkpt>
<trkpt lat="31.7798900" lon="35.1212100">
<ele>678.440002</ele>
<time>2021-07-14T08:46:18.024Z</time>
</trkpt>
<trkpt lat="31.7795600" lon="35.1209800">
<ele>683.169983</ele>
<time>2021-07-14T08:46:18.024Z</time>
</trkpt>
<trkpt lat="31.7793500" lon="35.1207900">
<ele>683.059998</ele>
<time>2021-07-14T08:46:18.024Z</time>
</trkpt>
<trkpt lat="31.7791200" lon="35.1205200">
<ele>681.040039</ele>
<time>2021-07-14T08:46:18.024Z</time>
</trkpt>
<trkpt lat="31.7789200" lon="35.1201900">
<ele>678.950012</ele>
<time>2021-07-14T08:46:18.024Z</time>
</trkpt>
<trkpt lat="31.7788100" lon="35.1198000">
<ele>679.970032</ele>
<time>2021-07-14T08:46:18.024Z</time>
</trkpt>
<trkpt lat="31.7787600" lon="35.1194100">
<ele>680.169983</ele>
<time>2021-07-14T08:46:18.024Z</time>
</trkpt>
<trkpt lat="31.7788100" lon="35.1190300">
<ele>679.599976</ele>
<time>2021-07-14T08:46:18.024Z</time>
</trkpt>
<trkpt lat="31.7789400" lon="35.1185600">
<ele>676.750000</ele>
<time>2021-07-14T08:46:18.024Z</time>
</trkpt>
<trkpt lat="31.7791500" lon="35.1183300">
<ele>675.960022</ele>
<time>2021-07-14T08:46:18.024Z</time>
</trkpt>
<trkpt lat="31.7794600" lon="35.1182600">
<ele>674.109985</ele>
<time>2021-07-14T08:46:18.024Z</time>
</trkpt>
<trkpt lat="31.7798300" lon="35.1182100">
<ele>682.900024</ele>
<time>2021-07-14T08:46:18.024Z</time>
</trkpt>
<trkpt lat="31.7802200" lon="35.1181800">
<ele>681.960022</ele>
<time>2021-07-14T08:46:18.024Z</time>
</trkpt>
<trkpt lat="31.7806700" lon="35.1181700">
<ele>687.750000</ele>
<time>2021-07-14T08:46:18.024Z</time>
</trkpt>
<trkpt lat="31.7810200" lon="35.1180600">
<ele>687.120056</ele>
<time>2021-07-14T08:46:18.024Z</time>
</trkpt>
<trkpt lat="31.7812500" lon="35.1177800">
<ele>686.050049</ele>
<time>2021-07-14T08:46:18.024Z</time>
</trkpt>
<trkpt lat="31.7814300" lon="35.1175500">
<ele>683.899963</ele>
<time>2021-07-14T08:46:18.024Z</time>
</trkpt>
<trkpt lat="31.7814600" lon="35.1175400">
<ele>684.380005</ele>
<time>2021-07-14T08:46:18.024Z</time>
</trkpt>
<trkpt lat="31.7816600" lon="35.1174800">
<ele>687.720032</ele>
<time>2021-07-14T08:46:18.024Z</time>
</trkpt>
<trkpt lat="31.7818900" lon="35.1173800">
<ele>686.210022</ele>
<time>2021-07-14T08:46:18.024Z</time>
</trkpt>
<trkpt lat="31.7821200" lon="35.1172900">
<ele>686.890015</ele>
<time>2021-07-14T08:46:18.024Z</time>
</trkpt>
<trkpt lat="31.7822400" lon="35.1172300">
<ele>687.360046</ele>
<time>2021-07-14T08:46:18.024Z</time>
</trkpt>
<trkpt lat="31.7823000" lon="35.1172100">
<ele>687.609985</ele>
<time>2021-07-14T08:46:18.024Z</time>
</trkpt>
<trkpt lat="31.7825100" lon="35.1171400">
<ele>689.359985</ele>
<time>2021-07-14T08:46:18.024Z</time>
</trkpt>
<trkpt lat="31.7827200" lon="35.1170500">
<ele>692.510010</ele>
<time>2021-07-14T08:46:18.024Z</time>
</trkpt>
<trkpt lat="31.7828600" lon="35.1167600">
<ele>691.280029</ele>
<time>2021-07-14T08:46:18.024Z</time>
</trkpt>
<trkpt lat="31.7830500" lon="35.1164100">
<ele>691.179993</ele>
<time>2021-07-14T08:46:18.024Z</time>
</trkpt>
<trkpt lat="31.7832200" lon="35.1161800">
<ele>692.600037</ele>
<time>2021-07-14T08:46:18.024Z</time>
</trkpt>
<trkpt lat="31.7832400" lon="35.1161600">
<ele>692.790039</ele>
<time>2021-07-14T08:46:18.024Z</time>
</trkpt>
<trkpt lat="31.7832500" lon="35.1161400">
<ele>692.779968</ele>
<time>2021-07-14T08:46:18.024Z</time>
</trkpt>
<trkpt lat="31.7834300" lon="35.1159300">
<ele>698.039978</ele>
<time>2021-07-14T08:46:18.024Z</time>
</trkpt>
<trkpt lat="31.7835300" lon="35.1158500">
<ele>700.820007</ele>
<time>2021-07-14T08:46:18.024Z</time>
</trkpt>
<trkpt lat="31.7836600" lon="35.1156300">
<ele>704.619995</ele>
<time>2021-07-14T08:46:18.024Z</time>
</trkpt>
<trkpt lat="31.7838100" lon="35.1154000">
<ele>706.300049</ele>
<time>2021-07-14T08:46:18.024Z</time>
</trkpt>
<trkpt lat="31.7839700" lon="35.1151500">
<ele>706.659973</ele>
<time>2021-07-14T08:46:18.024Z</time>
</trkpt>
<trkpt lat="31.7840300" lon="35.1150700">
<ele>706.520020</ele>
<time>2021-07-14T08:46:18.024Z</time>
</trkpt>
<trkpt lat="31.7840900" lon="35.1149700">
<ele>706.690063</ele>
<time>2021-07-14T08:46:18.024Z</time>
</trkpt>
<trkpt lat="31.7841700" lon="35.1148600">
<ele>708.010010</ele>
<time>2021-07-14T08:46:18.024Z</time>
</trkpt>
<trkpt lat="31.7842100" lon="35.1147900">
<ele>708.429993</ele>
<time>2021-07-14T08:46:18.024Z</time>
</trkpt>
<trkpt lat="31.7842400" lon="35.1147100">
<ele>708.700012</ele>
<time>2021-07-14T08:46:18.024Z</time>
</trkpt>
<trkpt lat="31.7842400" lon="35.1146800">
<ele>708.619995</ele>
<time>2021-07-14T08:46:18.024Z</time>
</trkpt>
<trkpt lat="31.7842400" lon="35.1146300">
<ele>708.489990</ele>
<time>2021-07-14T08:46:18.024Z</time>
</trkpt>
<trkpt lat="31.7842300" lon="35.1145900">
<ele>708.400024</ele>
<time>2021-07-14T08:46:18.024Z</time>
</trkpt>
<trkpt lat="31.7842100" lon="35.1145500">
<ele>708.320007</ele>
<time>2021-07-14T08:46:18.024Z</time>
</trkpt>
<trkpt lat="31.7839600" lon="35.1146100">
<ele>707.549988</ele>
<time>2021-07-14T08:46:18.024Z</time>
</trkpt>
<trkpt lat="31.7837500" lon="35.1149700">
<ele>703.319946</ele>
<time>2021-07-14T08:46:18.024Z</time>
</trkpt>
<trkpt lat="31.7837400" lon="35.1150200">
<ele>703.000000</ele>
<time>2021-07-14T08:46:18.024Z</time>
</trkpt>
<trkpt lat="31.7837200" lon="35.1150500">
<ele>702.929993</ele>
<time>2021-07-14T08:46:18.024Z</time>
</trkpt>
<trkpt lat="31.7837000" lon="35.1150400">
<ele>702.570007</ele>
<time>2021-07-14T08:46:18.024Z</time>
</trkpt>
<trkpt lat="31.7836800" lon="35.1150300">
<ele>702.210022</ele>
<time>2021-07-14T08:46:18.024Z</time>
</trkpt>
<trkpt lat="31.7835700" lon="35.1149400">
<ele>701.530029</ele>
<time>2021-07-14T08:46:18.024Z</time>
</trkpt>
<trkpt lat="31.7835700" lon="35.1149200">
<ele>701.760010</ele>
<time>2021-07-14T08:46:18.024Z</time>
</trkpt>
<trkpt lat="31.7835800" lon="35.1148600">
<ele>702.459961</ele>
<time>2021-07-14T08:46:18.024Z</time>
</trkpt>
<trkpt lat="31.7834400" lon="35.1146200">
<ele>705.700012</ele>
<time>2021-07-14T08:46:18.024Z</time>
</trkpt>
<trkpt lat="31.7833400" lon="35.1146100">
<ele>706.009949</ele>
<time>2021-07-14T08:46:18.024Z</time>
</trkpt>
<trkpt lat="31.7830500" lon="35.1145400">
<ele>708.549988</ele>
<time>2021-07-14T08:46:18.024Z</time>
</trkpt>
<trkpt lat="31.7828400" lon="35.1148100">
<ele>702.309998</ele>
<time>2021-07-14T08:46:18.024Z</time>
</trkpt>
<trkpt lat="31.7828100" lon="35.1148500">
<ele>701.979980</ele>
<time>2021-07-14T08:46:18.024Z</time>
</trkpt>
<trkpt lat="31.7827800" lon="35.1148900">
<ele>701.779968</ele>
<time>2021-07-14T08:46:18.024Z</time>
</trkpt>
<trkpt lat="31.7827500" lon="35.1149200">
<ele>701.279968</ele>
<time>2021-07-14T08:46:18.024Z</time>
</trkpt>
<trkpt lat="31.7826700" lon="35.1149900">
<ele>699.910034</ele>
<time>2021-07-14T08:46:18.024Z</time>
</trkpt>
<trkpt lat="31.7826200" lon="35.1150300">
<ele>698.989990</ele>
<time>2021-07-14T08:46:18.024Z</time>
</trkpt>
<trkpt lat="31.7825700" lon="35.1150600">
<ele>698.220032</ele>
<time>2021-07-14T08:46:18.024Z</time>
</trkpt>
<trkpt lat="31.7825200" lon="35.1150900">
<ele>697.520020</ele>
<time>2021-07-14T08:46:18.024Z</time>
</trkpt>
<trkpt lat="31.7824600" lon="35.1151200">
<ele>696.309998</ele>
<time>2021-07-14T08:46:18.024Z</time>
</trkpt>
<trkpt lat="31.7822700" lon="35.1151900">
<ele>691.049988</ele>
<time>2021-07-14T08:46:18.024Z</time>
</trkpt>
<trkpt lat="31.7821400" lon="35.1152200">
<ele>685.400024</ele>
<time>2021-07-14T08:46:18.024Z</time>
</trkpt>
<trkpt lat="31.7820100" lon="35.1152300">
<ele>679.099976</ele>
<time>2021-07-14T08:46:18.024Z</time>
</trkpt>
<trkpt lat="31.7815200" lon="35.1152800">
<ele>675.640015</ele>
<time>2021-07-14T08:46:18.024Z</time>
</trkpt>
<trkpt lat="31.7810100" lon="35.1153100">
<ele>684.239990</ele>
<time>2021-07-14T08:46:18.024Z</time>
</trkpt>
<trkpt lat="31.7809400" lon="35.1153000">
<ele>686.359985</ele>
<time>2021-07-14T08:46:18.024Z</time>
</trkpt>
<trkpt lat="31.7807200" lon="35.1152700">
<ele>692.250000</ele>
<time>2021-07-14T08:46:18.024Z</time>
</trkpt>
<trkpt lat="31.7806600" lon="35.1152500">
<ele>693.769958</ele>
<time>2021-07-14T08:46:18.024Z</time>
</trkpt>
<trkpt lat="31.7805900" lon="35.1152200">
<ele>695.519958</ele>
<time>2021-07-14T08:46:18.024Z</time>
</trkpt>
<trkpt lat="31.7805300" lon="35.1151800">
<ele>696.880005</ele>
<time>2021-07-14T08:46:18.024Z</time>
</trkpt>
<trkpt lat="31.7804700" lon="35.1151300">
<ele>697.950012</ele>
<time>2021-07-14T08:46:18.024Z</time>
</trkpt>
<trkpt lat="31.7804100" lon="35.1150700">
<ele>699.000000</ele>
<time>2021-07-14T08:46:18.024Z</time>
</trkpt>
<trkpt lat="31.7803600" lon="35.1150200">
<ele>699.739990</ele>
<time>2021-07-14T08:46:18.024Z</time>
</trkpt>
<trkpt lat="31.7803200" lon="35.1149600">
<ele>700.529968</ele>
<time>2021-07-14T08:46:18.024Z</time>
</trkpt>
<trkpt lat="31.7802000" lon="35.1147800">
<ele>701.500000</ele>
<time>2021-07-14T08:46:18.024Z</time>
</trkpt>
<trkpt lat="31.7801700" lon="35.1147200">
<ele>701.259949</ele>
<time>2021-07-14T08:46:18.024Z</time>
</trkpt>
<trkpt lat="31.7798400" lon="35.1140400">
<ele>692.500000</ele>
<time>2021-07-14T08:46:18.024Z</time>
</trkpt>
<trkpt lat="31.7796000" lon="35.1135200">
<ele>688.740051</ele>
<time>2021-07-14T08:46:18.024Z</time>
</trkpt>
<trkpt lat="31.7794800" lon="35.1132700">
<ele>685.710022</ele>
<time>2021-07-14T08:46:18.024Z</time>
</trkpt>
<trkpt lat="31.7794600" lon="35.1132000">
<ele>685.279968</ele>
<time>2021-07-14T08:46:18.024Z</time>
</trkpt>
<trkpt lat="31.7794200" lon="35.1130600">
<ele>684.390015</ele>
<time>2021-07-14T08:46:18.024Z</time>
</trkpt>
<trkpt lat="31.7794100" lon="35.1129200">
<ele>683.030029</ele>
<time>2021-07-14T08:46:18.024Z</time>
</trkpt>
<trkpt lat="31.7794100" lon="35.1128600">
<ele>682.549988</ele>
<time>2021-07-14T08:46:18.024Z</time>
</trkpt>
<trkpt lat="31.7795200" lon="35.1122000">
<ele>677.979980</ele>
<time>2021-07-14T08:46:18.024Z</time>
</trkpt>
<trkpt lat="31.7796000" lon="35.1115200">
<ele>672.690002</ele>
<time>2021-07-14T08:46:18.024Z</time>
</trkpt>
<trkpt lat="31.7797000" lon="35.1110000">
<ele>671.520020</ele>
<time>2021-07-14T08:46:18.024Z</time>
</trkpt>
<trkpt lat="31.7797300" lon="35.1106900">
<ele>672.559998</ele>
<time>2021-07-14T08:46:18.024Z</time>
</trkpt>
<trkpt lat="31.7797300" lon="35.1105600">
<ele>673.039978</ele>
<time>2021-07-14T08:46:18.024Z</time>
</trkpt>
<trkpt lat="31.7797200" lon="35.1105000">
<ele>673.779968</ele>
<time>2021-07-14T08:46:18.024Z</time>
</trkpt>
<trkpt lat="31.7797000" lon="35.1104300">
<ele>674.650024</ele>
<time>2021-07-14T08:46:18.024Z</time>
</trkpt>
<trkpt lat="31.7796800" lon="35.1103700">
<ele>675.369995</ele>
<time>2021-07-14T08:46:18.024Z</time>
</trkpt>
<trkpt lat="31.7796500" lon="35.1103200">
<ele>675.869934</ele>
<time>2021-07-14T08:46:18.024Z</time>
</trkpt>
<trkpt lat="31.7796200" lon="35.1102600">
<ele>676.539978</ele>
<time>2021-07-14T08:46:18.024Z</time>
</trkpt>
<trkpt lat="31.7795800" lon="35.1102100">
<ele>676.950012</ele>
<time>2021-07-14T08:46:18.024Z</time>
</trkpt>
<trkpt lat="31.7795400" lon="35.1101600">
<ele>677.250000</ele>
<time>2021-07-14T08:46:18.024Z</time>
</trkpt>
<trkpt lat="31.7793800" lon="35.1099700">
<ele>676.580017</ele>
<time>2021-07-14T08:46:18.024Z</time>
</trkpt>
<trkpt lat="31.7791200" lon="35.1096300">
<ele>672.270020</ele>
<time>2021-07-14T08:46:18.024Z</time>
</trkpt>
<trkpt lat="31.7790200" lon="35.1094900">
<ele>669.510010</ele>
<time>2021-07-14T08:46:18.024Z</time>
</trkpt>
<trkpt lat="31.7789900" lon="35.1094200">
<ele>668.639954</ele>
<time>2021-07-14T08:46:18.024Z</time>
</trkpt>
<trkpt lat="31.7789600" lon="35.1093600">
<ele>667.669983</ele>
<time>2021-07-14T08:46:18.024Z</time>
</trkpt>
<trkpt lat="31.7789400" lon="35.1092900">
<ele>666.809998</ele>
<time>2021-07-14T08:46:18.024Z</time>
</trkpt>
<trkpt lat="31.7789300" lon="35.1092200">
<ele>666.119995</ele>
<time>2021-07-14T08:46:18.024Z</time>
</trkpt>
<trkpt lat="31.7789100" lon="35.1091500">
<ele>665.260010</ele>
<time>2021-07-14T08:46:18.024Z</time>
</trkpt>
<trkpt lat="31.7789500" lon="35.1082800">
<ele>661.500000</ele>
<time>2021-07-14T08:46:18.024Z</time>
</trkpt>
<trkpt lat="31.7790700" lon="35.1075500">
<ele>657.570007</ele>
<time>2021-07-14T08:46:18.024Z</time>
</trkpt>
<trkpt lat="31.7791300" lon="35.1071000">
<ele>657.209961</ele>
<time>2021-07-14T08:46:18.024Z</time>
</trkpt>
<trkpt lat="31.7791300" lon="35.1068300">
<ele>656.900024</ele>
<time>2021-07-14T08:46:18.024Z</time>
</trkpt>
<trkpt lat="31.7791300" lon="35.1067800">
<ele>656.770020</ele>
<time>2021-07-14T08:46:18.024Z</time>
</trkpt>
<trkpt lat="31.7791100" lon="35.1064500">
<ele>656.179993</ele>
<time>2021-07-14T08:46:18.024Z</time>
</trkpt>
<trkpt lat="31.7789300" lon="35.1061500">
<ele>653.720032</ele>
<time>2021-07-14T08:46:18.024Z</time>
</trkpt>
<trkpt lat="31.7786900" lon="35.1059900">
<ele>650.419983</ele>
<time>2021-07-14T08:46:18.024Z</time>
</trkpt>
<trkpt lat="31.7785200" lon="35.1058500">
<ele>647.380005</ele>
<time>2021-07-14T08:46:18.024Z</time>
</trkpt>
<trkpt lat="31.7783900" lon="35.1054200">
<ele>642.840027</ele>
<time>2021-07-14T08:46:18.024Z</time>
</trkpt>
<trkpt lat="31.7783900" lon="35.1053700">
<ele>642.479980</ele>
<time>2021-07-14T08:46:18.024Z</time>
</trkpt>
<trkpt lat="31.7783900" lon="35.1047700">
<ele>636.669983</ele>
<time>2021-07-14T08:46:18.024Z</time>
</trkpt>
<trkpt lat="31.7783900" lon="35.1047200">
<ele>635.979980</ele>
<time>2021-07-14T08:46:18.024Z</time>
</trkpt>
<trkpt lat="31.7784100" lon="35.1046700">
<ele>635.489990</ele>
<time>2021-07-14T08:46:18.024Z</time>
</trkpt>
<trkpt lat="31.7785400" lon="35.1043600">
<ele>633.860046</ele>
<time>2021-07-14T08:46:18.024Z</time>
</trkpt>
<trkpt lat="31.7787000" lon="35.1040300">
<ele>633.970032</ele>
<time>2021-07-14T08:46:18.024Z</time>
</trkpt>
<trkpt lat="31.7787100" lon="35.1039800">
<ele>633.849976</ele>
<time>2021-07-14T08:46:18.024Z</time>
</trkpt>
<trkpt lat="31.7787100" lon="35.1039300">
<ele>633.609985</ele>
<time>2021-07-14T08:46:18.024Z</time>
</trkpt>
<trkpt lat="31.7787000" lon="35.1038800">
<ele>633.310059</ele>
<time>2021-07-14T08:46:18.024Z</time>
</trkpt>
<trkpt lat="31.7786900" lon="35.1038200">
<ele>633.380005</ele>
<time>2021-07-14T08:46:18.024Z</time>
</trkpt>
<trkpt lat="31.7786700" lon="35.1037600">
<ele>633.310059</ele>
<time>2021-07-14T08:46:18.024Z</time>
</trkpt>
<trkpt lat="31.7786400" lon="35.1037100">
<ele>633.059998</ele>
<time>2021-07-14T08:46:18.024Z</time>
</trkpt>
<trkpt lat="31.7786200" lon="35.1036700">
<ele>632.920044</ele>
<time>2021-07-14T08:46:18.024Z</time>
</trkpt>
<trkpt lat="31.7785900" lon="35.1036200">
<ele>632.660034</ele>
<time>2021-07-14T08:46:18.024Z</time>
</trkpt>
<trkpt lat="31.7782300" lon="35.1029800">
<ele>632.679993</ele>
<time>2021-07-14T08:46:18.024Z</time>
</trkpt>
<trkpt lat="31.7781100" lon="35.1027100">
<ele>630.589966</ele>
<time>2021-07-14T08:46:18.024Z</time>
</trkpt>
<trkpt lat="31.7781000" lon="35.1026500">
<ele>630.030029</ele>
<time>2021-07-14T08:46:18.024Z</time>
</trkpt>
<trkpt lat="31.7780900" lon="35.1025400">
<ele>629.119995</ele>
<time>2021-07-14T08:46:18.024Z</time>
</trkpt>
<trkpt lat="31.7780900" lon="35.1024900">
<ele>628.760010</ele>
<time>2021-07-14T08:46:18.024Z</time>
</trkpt>
<trkpt lat="31.7781600" lon="35.1014700">
<ele>626.959961</ele>
<time>2021-07-14T08:46:18.024Z</time>
</trkpt>
<trkpt lat="31.7781500" lon="35.1014200">
<ele>626.929993</ele>
<time>2021-07-14T08:46:18.024Z</time>
</trkpt>
<trkpt lat="31.7781400" lon="35.1013700">
<ele>626.869995</ele>
<time>2021-07-14T08:46:18.024Z</time>
</trkpt>
<trkpt lat="31.7781200" lon="35.1013100">
<ele>626.519958</ele>
<time>2021-07-14T08:46:18.024Z</time>
</trkpt>
<trkpt lat="31.7780900" lon="35.1012600">
<ele>625.859985</ele>
<time>2021-07-14T08:46:18.024Z</time>
</trkpt>
<trkpt lat="31.7780600" lon="35.1012200">
<ele>625.119995</ele>
<time>2021-07-14T08:46:18.024Z</time>
</trkpt>
<trkpt lat="31.7780200" lon="35.1011900">
<ele>624.509949</ele>
<time>2021-07-14T08:46:18.024Z</time>
</trkpt>
<trkpt lat="31.7779800" lon="35.1011700">
<ele>624.010010</ele>
<time>2021-07-14T08:46:18.024Z</time>
</trkpt>
<trkpt lat="31.7779400" lon="35.1011500">
<ele>623.579956</ele>
<time>2021-07-14T08:46:18.024Z</time>
</trkpt>
<trkpt lat="31.7779000" lon="35.1011400">
<ele>623.149963</ele>
<time>2021-07-14T08:46:18.024Z</time>
</trkpt>
<trkpt lat="31.7772700" lon="35.1011700">
<ele>622.700012</ele>
<time>2021-07-14T08:46:18.024Z</time>
</trkpt>
<trkpt lat="31.7767000" lon="35.1012900">
<ele>609.869995</ele>
<time>2021-07-14T08:46:18.024Z</time>
</trkpt>
<trkpt lat="31.7759800" lon="35.1012600">
<ele>617.469971</ele>
<time>2021-07-14T08:46:18.024Z</time>
</trkpt>
<trkpt lat="31.7756400" lon="35.1011400">
<ele>617.760010</ele>
<time>2021-07-14T08:46:18.024Z</time>
</trkpt>
<trkpt lat="31.7753000" lon="35.1009600">
<ele>627.970032</ele>
<time>2021-07-14T08:46:18.024Z</time>
</trkpt>
<trkpt lat="31.7748000" lon="35.1006300">
<ele>625.220032</ele>
<time>2021-07-14T08:46:18.024Z</time>
</trkpt>
<trkpt lat="31.7743600" lon="35.1002400">
<ele>615.239990</ele>
<time>2021-07-14T08:46:18.024Z</time>
</trkpt>
<trkpt lat="31.7743400" lon="35.1001500">
<ele>613.960022</ele>
<time>2021-07-14T08:46:18.024Z</time>
</trkpt>
<trkpt lat="31.7743200" lon="35.1001100">
<ele>613.150024</ele>
<time>2021-07-14T08:46:18.024Z</time>
</trkpt>
<trkpt lat="31.7742700" lon="35.0994500">
<ele>612.309998</ele>
<time>2021-07-14T08:46:18.024Z</time>
</trkpt>
<trkpt lat="31.7739900" lon="35.0995000">
<ele>604.780029</ele>
<time>2021-07-14T08:46:18.024Z</time>
</trkpt>
<trkpt lat="31.7735100" lon="35.0995600">
<ele>599.519958</ele>
<time>2021-07-14T08:46:18.024Z</time>
</trkpt>
<trkpt lat="31.7732300" lon="35.0994900">
<ele>596.570007</ele>
<time>2021-07-14T08:46:18.024Z</time>
</trkpt>
<trkpt lat="31.7730400" lon="35.0993700">
<ele>597.570007</ele>
<time>2021-07-14T08:46:18.024Z</time>
</trkpt>
<trkpt lat="31.7730100" lon="35.0993400">
<ele>597.209961</ele>
<time>2021-07-14T08:46:18.024Z</time>
</trkpt>
<trkpt lat="31.7729900" lon="35.0993000">
<ele>597.030029</ele>
<time>2021-07-14T08:46:18.024Z</time>
</trkpt>
<trkpt lat="31.7728000" lon="35.0989400">
<ele>597.950012</ele>
<time>2021-07-14T08:46:18.024Z</time>
</trkpt>
<trkpt lat="31.7726500" lon="35.0983700">
<ele>594.330017</ele>
<time>2021-07-14T08:46:18.024Z</time>
</trkpt>
<trkpt lat="31.7726600" lon="35.0975500">
<ele>592.840027</ele>
<time>2021-07-14T08:46:18.024Z</time>
</trkpt>
<trkpt lat="31.7725800" lon="35.0967700">
<ele>587.520020</ele>
<time>2021-07-14T08:46:18.024Z</time>
</trkpt>
<trkpt lat="31.7724100" lon="35.0967200">
<ele>584.549988</ele>
<time>2021-07-14T08:46:18.024Z</time>
</trkpt>
<trkpt lat="31.7722900" lon="35.0969900">
<ele>583.059998</ele>
<time>2021-07-14T08:46:18.024Z</time>
</trkpt>
<trkpt lat="31.7722300" lon="35.0970900">
<ele>583.130005</ele>
<time>2021-07-14T08:46:18.024Z</time>
</trkpt>
<trkpt lat="31.7721800" lon="35.0971600">
<ele>583.349976</ele>
<time>2021-07-14T08:46:18.024Z</time>
</trkpt>
<trkpt lat="31.7718400" lon="35.0976300">
<ele>584.100037</ele>
<time>2021-07-14T08:46:18.024Z</time>
</trkpt>
<trkpt lat="31.7713700" lon="35.0983800">
<ele>580.010010</ele>
<time>2021-07-14T08:46:18.024Z</time>
</trkpt>
<trkpt lat="31.7710100" lon="35.0988500">
<ele>580.219971</ele>
<time>2021-07-14T08:46:18.024Z</time>
</trkpt>
<trkpt lat="31.7709700" lon="35.0988800">
<ele>579.969971</ele>
<time>2021-07-14T08:46:18.024Z</time>
</trkpt>
<trkpt lat="31.7707500" lon="35.0990000">
<ele>577.799988</ele>
<time>2021-07-14T08:46:18.024Z</time>
</trkpt>
<trkpt lat="31.7707000" lon="35.0990200">
<ele>577.080017</ele>
<time>2021-07-14T08:46:18.024Z</time>
</trkpt>
<trkpt lat="31.7706500" lon="35.0990300">
<ele>576.359985</ele>
<time>2021-07-14T08:46:18.024Z</time>
</trkpt>
<trkpt lat="31.7700700" lon="35.0990200">
<ele>565.890015</ele>
<time>2021-07-14T08:46:18.024Z</time>
</trkpt>
<trkpt lat="31.7694300" lon="35.0990100">
<ele>558.950012</ele>
<time>2021-07-14T08:46:18.024Z</time>
</trkpt>
<trkpt lat="31.7693000" lon="35.0990200">
<ele>562.279968</ele>
<time>2021-07-14T08:46:18.024Z</time>
</trkpt>
<trkpt lat="31.7689200" lon="35.0991300">
<ele>568.119995</ele>
<time>2021-07-14T08:46:18.024Z</time>
</trkpt>
<trkpt lat="31.7685700" lon="35.0992200">
<ele>563.980042</ele>
<time>2021-07-14T08:46:18.024Z</time>
</trkpt>
<trkpt lat="31.7685200" lon="35.0992400">
<ele>564.150024</ele>
<time>2021-07-14T08:46:18.024Z</time>
</trkpt>
<trkpt lat="31.7682200" lon="35.0993400">
<ele>564.540039</ele>
<time>2021-07-14T08:46:18.024Z</time>
</trkpt>
<trkpt lat="31.7679000" lon="35.0996000">
<ele>562.739990</ele>
<time>2021-07-14T08:46:18.024Z</time>
</trkpt>
<trkpt lat="31.7676700" lon="35.0998200">
<ele>561.469971</ele>
<time>2021-07-14T08:46:18.024Z</time>
</trkpt>
<trkpt lat="31.7676300" lon="35.0998400">
<ele>561.059998</ele>
<time>2021-07-14T08:46:18.024Z</time>
</trkpt>
<trkpt lat="31.7676000" lon="35.0998500">
<ele>560.760010</ele>
<time>2021-07-14T08:46:18.024Z</time>
</trkpt>
<trkpt lat="31.7675600" lon="35.0998700">
<ele>560.119995</ele>
<time>2021-07-14T08:46:18.024Z</time>
</trkpt>
<trkpt lat="31.7675200" lon="35.0998800">
<ele>559.599976</ele>
<time>2021-07-14T08:46:18.024Z</time>
</trkpt>
<trkpt lat="31.7674900" lon="35.0998800">
<ele>559.070007</ele>
<time>2021-07-14T08:46:18.024Z</time>
</trkpt>
<trkpt lat="31.7674100" lon="35.0998800">
<ele>555.989990</ele>
<time>2021-07-14T08:46:18.024Z</time>
</trkpt>
<trkpt lat="31.7669500" lon="35.0998100">
<ele>546.470032</ele>
<time>2021-07-14T08:46:18.024Z</time>
</trkpt>
<trkpt lat="31.7664100" lon="35.0998000">
<ele>542.510010</ele>
<time>2021-07-14T08:46:18.024Z</time>
</trkpt>
<trkpt lat="31.7663700" lon="35.0998000">
<ele>542.929993</ele>
<time>2021-07-14T08:46:18.024Z</time>
</trkpt>
<trkpt lat="31.7661300" lon="35.0997600">
<ele>544.260010</ele>
<time>2021-07-14T08:46:18.024Z</time>
</trkpt>
<trkpt lat="31.7658200" lon="35.0996000">
<ele>547.559998</ele>
<time>2021-07-14T08:46:18.024Z</time>
</trkpt>
<trkpt lat="31.7657200" lon="35.0995600">
<ele>546.840027</ele>
<time>2021-07-14T08:46:18.024Z</time>
</trkpt>
<trkpt lat="31.7655400" lon="35.0995000">
<ele>546.320007</ele>
<time>2021-07-14T08:46:18.024Z</time>
</trkpt>
<trkpt lat="31.7651400" lon="35.0993700">
<ele>543.700012</ele>
<time>2021-07-14T08:46:18.024Z</time>
</trkpt>
<trkpt lat="31.7650800" lon="35.0993500">
<ele>542.369995</ele>
<time>2021-07-14T08:46:18.024Z</time>
</trkpt>
<trkpt lat="31.7647000" lon="35.0991500">
<ele>544.160034</ele>
<time>2021-07-14T08:46:18.024Z</time>
</trkpt>
<trkpt lat="31.7646300" lon="35.0990900">
<ele>544.460022</ele>
<time>2021-07-14T08:46:18.024Z</time>
</trkpt>
<trkpt lat="31.7646000" lon="35.0990500">
<ele>544.520020</ele>
<time>2021-07-14T08:46:18.024Z</time>
</trkpt>
<trkpt lat="31.7645700" lon="35.0990100">
<ele>544.460022</ele>
<time>2021-07-14T08:46:18.024Z</time>
</trkpt>
<trkpt lat="31.7645600" lon="35.0989700">
<ele>544.469971</ele>
<time>2021-07-14T08:46:18.024Z</time>
</trkpt>
<trkpt lat="31.7645400" lon="35.0989200">
<ele>544.330017</ele>
<time>2021-07-14T08:46:18.024Z</time>
</trkpt>
<trkpt lat="31.7644800" lon="35.0984500">
<ele>539.940002</ele>
<time>2021-07-14T08:46:18.024Z</time>
</trkpt>
<trkpt lat="31.7645100" lon="35.0977400">
<ele>538.289978</ele>
<time>2021-07-14T08:46:18.024Z</time>
</trkpt>
<trkpt lat="31.7645100" lon="35.0976500">
<ele>538.690002</ele>
<time>2021-07-14T08:46:18.024Z</time>
</trkpt>
<trkpt lat="31.7644400" lon="35.0975600">
<ele>536.679993</ele>
<time>2021-07-14T08:46:18.024Z</time>
</trkpt>
<trkpt lat="31.7644200" lon="35.0975300">
<ele>536.349976</ele>
<time>2021-07-14T08:46:18.024Z</time>
</trkpt>
<trkpt lat="31.7644000" lon="35.0974900">
<ele>536.099976</ele>
<time>2021-07-14T08:46:18.024Z</time>
</trkpt>
<trkpt lat="31.7643000" lon="35.0972400">
<ele>534.780029</ele>
<time>2021-07-14T08:46:18.024Z</time>
</trkpt>
<trkpt lat="31.7642400" lon="35.0968700">
<ele>531.039978</ele>
<time>2021-07-14T08:46:18.024Z</time>
</trkpt>
<trkpt lat="31.7642500" lon="35.0966100">
<ele>531.390015</ele>
<time>2021-07-14T08:46:18.024Z</time>
</trkpt>
<trkpt lat="31.7642900" lon="35.0964400">
<ele>533.020020</ele>
<time>2021-07-14T08:46:18.024Z</time>
</trkpt>
<trkpt lat="31.7644000" lon="35.0961100">
<ele>535.529968</ele>
<time>2021-07-14T08:46:18.024Z</time>
</trkpt>
<trkpt lat="31.7641600" lon="35.0959700">
<ele>532.309998</ele>
<time>2021-07-14T08:46:18.024Z</time>
</trkpt>
<trkpt lat="31.7639700" lon="35.0959100">
<ele>527.119995</ele>
<time>2021-07-14T08:46:18.024Z</time>
</trkpt>
<trkpt lat="31.7638200" lon="35.0959000">
<ele>523.709961</ele>
<time>2021-07-14T08:46:18.024Z</time>
</trkpt>
<trkpt lat="31.7637300" lon="35.0958800">
<ele>522.229980</ele>
<time>2021-07-14T08:46:18.024Z</time>
</trkpt>
<trkpt lat="31.7636200" lon="35.0958300">
<ele>521.159973</ele>
<time>2021-07-14T08:46:18.024Z</time>
</trkpt>
<trkpt lat="31.7634300" lon="35.0957600">
<ele>522.000000</ele>
<time>2021-07-14T08:46:18.024Z</time>
</trkpt>
<trkpt lat="31.7632600" lon="35.0956900">
<ele>522.390015</ele>
<time>2021-07-14T08:46:18.024Z</time>
</trkpt>
<trkpt lat="31.7632200" lon="35.0957000">
<ele>521.229980</ele>
<time>2021-07-14T08:46:18.024Z</time>
</trkpt>
<trkpt lat="31.7631200" lon="35.0957100">
<ele>518.780029</ele>
<time>2021-07-14T08:46:18.024Z</time>
</trkpt>
<trkpt lat="31.7630800" lon="35.0957100">
<ele>517.880005</ele>
<time>2021-07-14T08:46:18.024Z</time>
</trkpt>
<trkpt lat="31.7630300" lon="35.0957300">
<ele>515.989990</ele>
<time>2021-07-14T08:46:18.024Z</time>
</trkpt>
<trkpt lat="31.7630000" lon="35.0957400">
<ele>514.540039</ele>
<time>2021-07-14T08:46:18.024Z</time>
</trkpt>
<trkpt lat="31.7628900" lon="35.0957300">
<ele>509.809998</ele>
<time>2021-07-14T08:46:18.024Z</time>
</trkpt>
<trkpt lat="31.7627800" lon="35.0957000">
<ele>505.500000</ele>
<time>2021-07-14T08:46:18.024Z</time>
</trkpt>
<trkpt lat="31.7627000" lon="35.0956600">
<ele>502.440002</ele>
<time>2021-07-14T08:46:18.024Z</time>
</trkpt>
<trkpt lat="31.7624400" lon="35.0955000">
<ele>494.250031</ele>
<time>2021-07-14T08:46:18.024Z</time>
</trkpt>
<trkpt lat="31.7621800" lon="35.0953100">
<ele>484.730011</ele>
<time>2021-07-14T08:46:18.024Z</time>
</trkpt>
<trkpt lat="31.7620300" lon="35.0953800">
<ele>481.899994</ele>
<time>2021-07-14T08:46:18.024Z</time>
</trkpt>
<trkpt lat="31.7620100" lon="35.0954300">
<ele>481.740021</ele>
<time>2021-07-14T08:46:18.024Z</time>
</trkpt>
<trkpt lat="31.7620700" lon="35.0956700">
<ele>479.369995</ele>
<time>2021-07-14T08:46:18.024Z</time>
</trkpt>
<trkpt lat="31.7621100" lon="35.0959100">
<ele>475.620026</ele>
<time>2021-07-14T08:46:18.024Z</time>
</trkpt>
<trkpt lat="31.7621600" lon="35.0959900">
<ele>475.140015</ele>
<time>2021-07-14T08:46:18.024Z</time>
</trkpt>
<trkpt lat="31.7623200" lon="35.0961400">
<ele>476.539978</ele>
<time>2021-07-14T08:46:18.024Z</time>
</trkpt>
<trkpt lat="31.7623300" lon="35.0961700">
<ele>476.889984</ele>
<time>2021-07-14T08:46:18.024Z</time>
</trkpt>
<trkpt lat="31.7623600" lon="35.0962100">
<ele>477.790009</ele>
<time>2021-07-14T08:46:18.024Z</time>
</trkpt>
<trkpt lat="31.7623700" lon="35.0962600">
<ele>477.970001</ele>
<time>2021-07-14T08:46:18.024Z</time>
</trkpt>
<trkpt lat="31.7623100" lon="35.0962400">
<ele>476.350006</ele>
<time>2021-07-14T08:46:18.024Z</time>
</trkpt>
<trkpt lat="31.7621600" lon="35.0962400">
<ele>473.500000</ele>
<time>2021-07-14T08:46:18.024Z</time>
</trkpt>
<trkpt lat="31.7620400" lon="35.0962400">
<ele>472.660004</ele>
<time>2021-07-14T08:46:18.024Z</time>
</trkpt>
<trkpt lat="31.7620100" lon="35.0962100">
<ele>472.399994</ele>
<time>2021-07-14T08:46:18.024Z</time>
</trkpt>
<trkpt lat="31.7619800" lon="35.0961800">
<ele>472.190002</ele>
<time>2021-07-14T08:46:18.024Z</time>
</trkpt>
<trkpt lat="31.7618900" lon="35.0961200">
<ele>471.779999</ele>
<time>2021-07-14T08:46:18.024Z</time>
</trkpt>
<trkpt lat="31.7617200" lon="35.0961000">
<ele>471.190002</ele>
<time>2021-07-14T08:46:18.024Z</time>
</trkpt>
<trkpt lat="31.7617200" lon="35.0961100">
<ele>471.190002</ele>
<time>2021-07-14T08:46:18.024Z</time>
</trkpt>
<trkpt lat="31.7616100" lon="35.0960700">
<ele>468.380005</ele>
<time>2021-07-14T08:46:18.024Z</time>
</trkpt>
<trkpt lat="31.7614800" lon="35.0960700">
<ele>462.359985</ele>
<time>2021-07-14T08:46:18.024Z</time>
</trkpt>
<trkpt lat="31.7613600" lon="35.0960900">
<ele>457.210022</ele>
<time>2021-07-14T08:46:18.024Z</time>
</trkpt>
<trkpt lat="31.7611900" lon="35.0960500">
<ele>451.860016</ele>
<time>2021-07-14T08:46:18.024Z</time>
</trkpt>
<trkpt lat="31.7610500" lon="35.0960200">
<ele>447.540009</ele>
<time>2021-07-14T08:46:18.024Z</time>
</trkpt>
<trkpt lat="31.7609700" lon="35.0960100">
<ele>445.579987</ele>
<time>2021-07-14T08:46:18.024Z</time>
</trkpt>
<trkpt lat="31.7609400" lon="35.0960600">
<ele>444.970001</ele>
<time>2021-07-14T08:46:18.024Z</time>
</trkpt>
<trkpt lat="31.7609300" lon="35.0961000">
<ele>444.769989</ele>
<time>2021-07-14T08:46:18.024Z</time>
</trkpt>
<trkpt lat="31.7609700" lon="35.0962600">
<ele>444.869995</ele>
<time>2021-07-14T08:46:18.024Z</time>
</trkpt>
<trkpt lat="31.7610100" lon="35.0963500">
<ele>445.130005</ele>
<time>2021-07-14T08:46:18.024Z</time>
</trkpt>
<trkpt lat="31.7610300" lon="35.0965000">
<ele>444.729980</ele>
<time>2021-07-14T08:46:18.024Z</time>
</trkpt>
<trkpt lat="31.7609900" lon="35.0965400">
<ele>443.600006</ele>
<time>2021-07-14T08:46:18.024Z</time>
</trkpt>
<trkpt lat="31.7607100" lon="35.0963700">
<ele>440.119995</ele>
<time>2021-07-14T08:46:18.024Z</time>
</trkpt>
<trkpt lat="31.7605300" lon="35.0961100">
<ele>437.889984</ele>
<time>2021-07-14T08:46:18.024Z</time>
</trkpt>
<trkpt lat="31.7604000" lon="35.0959700">
<ele>435.980011</ele>
<time>2021-07-14T08:46:18.024Z</time>
</trkpt>
<trkpt lat="31.7602300" lon="35.0959500">
<ele>435.440002</ele>
<time>2021-07-14T08:46:18.024Z</time>
</trkpt>
<trkpt lat="31.7602200" lon="35.0959800">
<ele>435.660004</ele>
<time>2021-07-14T08:46:18.024Z</time>
</trkpt>
<trkpt lat="31.7602600" lon="35.0961300">
<ele>437.209991</ele>
<time>2021-07-14T08:46:18.024Z</time>
</trkpt>
<trkpt lat="31.7603900" lon="35.0962900">
<ele>438.819977</ele>
<time>2021-07-14T08:46:18.024Z</time>
</trkpt>
<trkpt lat="31.7604300" lon="35.0963500">
<ele>439.190002</ele>
<time>2021-07-14T08:46:18.024Z</time>
</trkpt>
<trkpt lat="31.7604800" lon="35.0964000">
<ele>439.410004</ele>
<time>2021-07-14T08:46:18.024Z</time>
</trkpt>
<trkpt lat="31.7606200" lon="35.0965400">
<ele>440.459991</ele>
<time>2021-07-14T08:46:18.024Z</time>
</trkpt>
<trkpt lat="31.7607400" lon="35.0966200">
<ele>440.059998</ele>
<time>2021-07-14T08:46:18.024Z</time>
</trkpt>
<trkpt lat="31.7609200" lon="35.0968100">
<ele>440.699982</ele>
<time>2021-07-14T08:46:18.024Z</time>
</trkpt>
<trkpt lat="31.7611300" lon="35.0969700">
<ele>443.739990</ele>
<time>2021-07-14T08:46:18.024Z</time>
</trkpt>
<trkpt lat="31.7613700" lon="35.0971800">
<ele>444.790009</ele>
<time>2021-07-14T08:46:18.024Z</time>
</trkpt>
<trkpt lat="31.7614900" lon="35.0972700">
<ele>446.390015</ele>
<time>2021-07-14T08:46:18.024Z</time>
</trkpt>
<trkpt lat="31.7616500" lon="35.0974100">
<ele>446.850006</ele>
<time>2021-07-14T08:46:18.024Z</time>
</trkpt>
<trkpt lat="31.7616800" lon="35.0974500">
<ele>446.309998</ele>
<time>2021-07-14T08:46:18.024Z</time>
</trkpt>
<trkpt lat="31.7617600" lon="35.0975800">
<ele>445.480011</ele>
<time>2021-07-14T08:46:18.024Z</time>
</trkpt>
<trkpt lat="31.7619200" lon="35.0978700">
<ele>443.229980</ele>
<time>2021-07-14T08:46:18.024Z</time>
</trkpt>
<trkpt lat="31.7621200" lon="35.0982000">
<ele>440.130005</ele>
<time>2021-07-14T08:46:18.024Z</time>
</trkpt>
<trkpt lat="31.7621900" lon="35.0984000">
<ele>439.119995</ele>
<time>2021-07-14T08:46:18.024Z</time>
</trkpt>
<trkpt lat="31.7622300" lon="35.0987000">
<ele>440.310028</ele>
<time>2021-07-14T08:46:18.024Z</time>
</trkpt>
<trkpt lat="31.7622700" lon="35.0988200">
<ele>443.229980</ele>
<time>2021-07-14T08:46:18.024Z</time>
</trkpt>
<trkpt lat="31.7623200" lon="35.0988900">
<ele>445.879974</ele>
<time>2021-07-14T08:46:18.024Z</time>
</trkpt>
<trkpt lat="31.7623700" lon="35.0991200">
<ele>449.300018</ele>
<time>2021-07-14T08:46:18.024Z</time>
</trkpt>
<trkpt lat="31.7623600" lon="35.0992100">
<ele>451.199982</ele>
<time>2021-07-14T08:46:18.024Z</time>
</trkpt>
<trkpt lat="31.7624800" lon="35.0993900">
<ele>459.630005</ele>
<time>2021-07-14T08:46:18.024Z</time>
</trkpt>
<trkpt lat="31.7625400" lon="35.0994700">
<ele>463.000031</ele>
<time>2021-07-14T08:46:18.024Z</time>
</trkpt>
<trkpt lat="31.7628200" lon="35.0996800">
<ele>461.429993</ele>
<time>2021-07-14T08:46:18.024Z</time>
</trkpt>
<trkpt lat="31.7629400" lon="35.0998300">
<ele>461.660004</ele>
<time>2021-07-14T08:46:18.024Z</time>
</trkpt>
<trkpt lat="31.7630900" lon="35.1000700">
<ele>459.440002</ele>
<time>2021-07-14T08:46:18.024Z</time>
</trkpt>
<trkpt lat="31.7632800" lon="35.1002400">
<ele>454.600006</ele>
<time>2021-07-14T08:46:18.024Z</time>
</trkpt>
<trkpt lat="31.7634600" lon="35.1004000">
<ele>457.649994</ele>
<time>2021-07-14T08:46:18.024Z</time>
</trkpt>
<trkpt lat="31.7634900" lon="35.1004100">
<ele>458.139984</ele>
<time>2021-07-14T08:46:18.024Z</time>
</trkpt>
<trkpt lat="31.7635200" lon="35.1004400">
<ele>458.540009</ele>
<time>2021-07-14T08:46:18.024Z</time>
</trkpt>
<trkpt lat="31.7636000" lon="35.1004900">
<ele>458.230011</ele>
<time>2021-07-14T08:46:18.024Z</time>
</trkpt>
<trkpt lat="31.7637000" lon="35.1005300">
<ele>459.990021</ele>
<time>2021-07-14T08:46:18.024Z</time>
</trkpt>
<trkpt lat="31.7637900" lon="35.1005900">
<ele>463.739990</ele>
<time>2021-07-14T08:46:18.024Z</time>
</trkpt>
<trkpt lat="31.7639900" lon="35.1007000">
<ele>469.850006</ele>
<time>2021-07-14T08:46:18.024Z</time>
</trkpt>
<trkpt lat="31.7643000" lon="35.1009500">
<ele>470.409973</ele>
<time>2021-07-14T08:46:18.024Z</time>
</trkpt>
<trkpt lat="31.7645600" lon="35.1011500">
<ele>468.950012</ele>
<time>2021-07-14T08:46:18.024Z</time>
</trkpt>
<trkpt lat="31.7648400" lon="35.1012500">
<ele>470.700012</ele>
<time>2021-07-14T08:46:18.024Z</time>
</trkpt>
<trkpt lat="31.7651100" lon="35.1013200">
<ele>473.940002</ele>
<time>2021-07-14T08:46:18.024Z</time>
</trkpt>
<trkpt lat="31.7652100" lon="35.1013400">
<ele>476.669983</ele>
<time>2021-07-14T08:46:18.024Z</time>
</trkpt>
<trkpt lat="31.7652800" lon="35.1013700">
<ele>477.810028</ele>
<time>2021-07-14T08:46:18.024Z</time>
</trkpt>
<trkpt lat="31.7655900" lon="35.1015400">
<ele>476.319977</ele>
<time>2021-07-14T08:46:18.024Z</time>
</trkpt>
<trkpt lat="31.7656400" lon="35.1016200">
<ele>475.899994</ele>
<time>2021-07-14T08:46:18.024Z</time>
</trkpt>
<trkpt lat="31.7657900" lon="35.1018100">
<ele>476.260010</ele>
<time>2021-07-14T08:46:18.024Z</time>
</trkpt>
<trkpt lat="31.7658600" lon="35.1018600">
<ele>476.319977</ele>
<time>2021-07-14T08:46:18.024Z</time>
</trkpt>
<trkpt lat="31.7658800" lon="35.1018800">
<ele>476.619995</ele>
<time>2021-07-14T08:46:18.024Z</time>
</trkpt>
<trkpt lat="31.7660700" lon="35.1019800">
<ele>477.519989</ele>
<time>2021-07-14T08:46:18.024Z</time>
</trkpt>
<trkpt lat="31.7663900" lon="35.1020700">
<ele>473.530029</ele>
<time>2021-07-14T08:46:18.024Z</time>
</trkpt>
<trkpt lat="31.7667000" lon="35.1020200">
<ele>469.880005</ele>
<time>2021-07-14T08:46:18.024Z</time>
</trkpt>
<trkpt lat="31.7668800" lon="35.1020200">
<ele>471.709991</ele>
<time>2021-07-14T08:46:18.024Z</time>
</trkpt>
<trkpt lat="31.7670300" lon="35.1019800">
<ele>472.330017</ele>
<time>2021-07-14T08:46:18.024Z</time>
</trkpt>
<trkpt lat="31.7672300" lon="35.1019300">
<ele>472.580017</ele>
<time>2021-07-14T08:46:18.024Z</time>
</trkpt>
<trkpt lat="31.7674200" lon="35.1018800">
<ele>469.590027</ele>
<time>2021-07-14T08:46:18.024Z</time>
</trkpt>
<trkpt lat="31.7675600" lon="35.1018200">
<ele>468.669983</ele>
<time>2021-07-14T08:46:18.024Z</time>
</trkpt>
<trkpt lat="31.7677200" lon="35.1017600">
<ele>468.600006</ele>
<time>2021-07-14T08:46:18.024Z</time>
</trkpt>
<trkpt lat="31.7678700" lon="35.1017500">
<ele>469.529999</ele>
<time>2021-07-14T08:46:18.024Z</time>
</trkpt>
<trkpt lat="31.7680100" lon="35.1016800">
<ele>469.169983</ele>
<time>2021-07-14T08:46:18.024Z</time>
</trkpt>
<trkpt lat="31.7680600" lon="35.1016800">
<ele>469.370026</ele>
<time>2021-07-14T08:46:18.024Z</time>
</trkpt>
<trkpt lat="31.7682900" lon="35.1016300">
<ele>468.220001</ele>
<time>2021-07-14T08:46:18.024Z</time>
</trkpt>
<trkpt lat="31.7683300" lon="35.1016000">
<ele>468.019989</ele>
<time>2021-07-14T08:46:18.024Z</time>
</trkpt>
<trkpt lat="31.7683900" lon="35.1015400">
<ele>468.439972</ele>
<time>2021-07-14T08:46:18.024Z</time>
</trkpt>
<trkpt lat="31.7684700" lon="35.1015100">
<ele>468.860016</ele>
<time>2021-07-14T08:46:18.024Z</time>
</trkpt>
<trkpt lat="31.7686400" lon="35.1015100">
<ele>470.109985</ele>
<time>2021-07-14T08:46:18.024Z</time>
</trkpt>
<trkpt lat="31.7686800" lon="35.1014900">
<ele>470.360016</ele>
<time>2021-07-14T08:46:18.024Z</time>
</trkpt>
<trkpt lat="31.7686900" lon="35.1015000">
<ele>470.620026</ele>
<time>2021-07-14T08:46:18.024Z</time>
</trkpt>
<trkpt lat="31.7688400" lon="35.1014500">
<ele>471.990021</ele>
<time>2021-07-14T08:46:18.024Z</time>
</trkpt>
<trkpt lat="31.7689100" lon="35.1014300">
<ele>473.029999</ele>
<time>2021-07-14T08:46:18.024Z</time>
</trkpt>
<trkpt lat="31.7690900" lon="35.1013300">
<ele>476.610016</ele>
<time>2021-07-14T08:46:18.024Z</time>
</trkpt>
<trkpt lat="31.7692900" lon="35.1012000">
<ele>476.980011</ele>
<time>2021-07-14T08:46:18.024Z</time>
</trkpt>
<trkpt lat="31.7694800" lon="35.1011100">
<ele>477.790009</ele>
<time>2021-07-14T08:46:18.024Z</time>
</trkpt>
<trkpt lat="31.7697400" lon="35.1010300">
<ele>485.239990</ele>
<time>2021-07-14T08:46:18.024Z</time>
</trkpt>
<trkpt lat="31.7699100" lon="35.1010100">
<ele>487.510010</ele>
<time>2021-07-14T08:46:18.024Z</time>
</trkpt>
<trkpt lat="31.7700700" lon="35.1009500">
<ele>491.609985</ele>
<time>2021-07-14T08:46:18.024Z</time>
</trkpt>
<trkpt lat="31.7703600" lon="35.1008700">
<ele>499.359985</ele>
<time>2021-07-14T08:46:18.024Z</time>
</trkpt>
<trkpt lat="31.7705400" lon="35.1008400">
<ele>501.820007</ele>
<time>2021-07-14T08:46:18.024Z</time>
</trkpt>
<trkpt lat="31.7707500" lon="35.1007900">
<ele>503.509979</ele>
<time>2021-07-14T08:46:18.024Z</time>
</trkpt>
<trkpt lat="31.7710100" lon="35.1008100">
<ele>505.120026</ele>
<time>2021-07-14T08:46:18.024Z</time>
</trkpt>
<trkpt lat="31.7712200" lon="35.1008100">
<ele>508.570007</ele>
<time>2021-07-14T08:46:18.024Z</time>
</trkpt>
<trkpt lat="31.7714300" lon="35.1007800">
<ele>512.279968</ele>
<time>2021-07-14T08:46:18.024Z</time>
</trkpt>
<trkpt lat="31.7715500" lon="35.1006600">
<ele>513.479980</ele>
<time>2021-07-14T08:46:18.024Z</time>
</trkpt>
<trkpt lat="31.7717700" lon="35.1007400">
<ele>516.980042</ele>
<time>2021-07-14T08:46:18.024Z</time>
</trkpt>
<trkpt lat="31.7719800" lon="35.1007900">
<ele>520.640015</ele>
<time>2021-07-14T08:46:18.024Z</time>
</trkpt>
<trkpt lat="31.7720700" lon="35.1008200">
<ele>521.510010</ele>
<time>2021-07-14T08:46:18.024Z</time>
</trkpt>
<trkpt lat="31.7721600" lon="35.1008700">
<ele>522.549988</ele>
<time>2021-07-14T08:46:18.024Z</time>
</trkpt>
<trkpt lat="31.7724500" lon="35.1010700">
<ele>522.270020</ele>
<time>2021-07-14T08:46:18.024Z</time>
</trkpt>
<trkpt lat="31.7726500" lon="35.1011900">
<ele>521.260010</ele>
<time>2021-07-14T08:46:18.024Z</time>
</trkpt>
<trkpt lat="31.7728400" lon="35.1012700">
<ele>521.520020</ele>
<time>2021-07-14T08:46:18.024Z</time>
</trkpt>
<trkpt lat="31.7730500" lon="35.1013600">
<ele>519.929993</ele>
<time>2021-07-14T08:46:18.024Z</time>
</trkpt>
<trkpt lat="31.7732500" lon="35.1014000">
<ele>523.059998</ele>
<time>2021-07-14T08:46:18.024Z</time>
</trkpt>
<trkpt lat="31.7733200" lon="35.1014300">
<ele>524.010010</ele>
<time>2021-07-14T08:46:18.024Z</time>
</trkpt>
<trkpt lat="31.7733600" lon="35.1014800">
<ele>524.349976</ele>
<time>2021-07-14T08:46:18.024Z</time>
</trkpt>
<trkpt lat="31.7734000" lon="35.1015200">
<ele>525.150024</ele>
<time>2021-07-14T08:46:18.024Z</time>
</trkpt>
<trkpt lat="31.7735000" lon="35.1016800">
<ele>526.969971</ele>
<time>2021-07-14T08:46:18.024Z</time>
</trkpt>
<trkpt lat="31.7737200" lon="35.1018800">
<ele>538.250000</ele>
<time>2021-07-14T08:46:18.024Z</time>
</trkpt>
<trkpt lat="31.7739500" lon="35.1019800">
<ele>538.239990</ele>
<time>2021-07-14T08:46:18.024Z</time>
</trkpt>
<trkpt lat="31.7740300" lon="35.1020600">
<ele>537.270020</ele>
<time>2021-07-14T08:46:18.024Z</time>
</trkpt>
<trkpt lat="31.7740900" lon="35.1021300">
<ele>536.640015</ele>
<time>2021-07-14T08:46:18.024Z</time>
</trkpt>
<trkpt lat="31.7743000" lon="35.1022800">
<ele>533.530029</ele>
<time>2021-07-14T08:46:18.024Z</time>
</trkpt>
<trkpt lat="31.7743900" lon="35.1023500">
<ele>530.489990</ele>
<time>2021-07-14T08:46:18.024Z</time>
</trkpt>
<trkpt lat="31.7745200" lon="35.1024000">
<ele>528.190002</ele>
<time>2021-07-14T08:46:18.024Z</time>
</trkpt>
<trkpt lat="31.7747200" lon="35.1025100">
<ele>526.070007</ele>
<time>2021-07-14T08:46:18.024Z</time>
</trkpt>
<trkpt lat="31.7748900" lon="35.1027100">
<ele>532.619995</ele>
<time>2021-07-14T08:46:18.024Z</time>
</trkpt>
<trkpt lat="31.7750500" lon="35.1029300">
<ele>535.960022</ele>
<time>2021-07-14T08:46:18.024Z</time>
</trkpt>
<trkpt lat="31.7751400" lon="35.1030400">
<ele>537.100037</ele>
<time>2021-07-14T08:46:18.024Z</time>
</trkpt>
<trkpt lat="31.7751900" lon="35.1030700">
<ele>537.830017</ele>
<time>2021-07-14T08:46:18.024Z</time>
</trkpt>
<trkpt lat="31.7753300" lon="35.1031600">
<ele>539.090027</ele>
<time>2021-07-14T08:46:18.024Z</time>
</trkpt>
<trkpt lat="31.7753600" lon="35.1031700">
<ele>539.099976</ele>
<time>2021-07-14T08:46:18.024Z</time>
</trkpt>
<trkpt lat="31.7754400" lon="35.1032600">
<ele>538.450012</ele>
<time>2021-07-14T08:46:18.024Z</time>
</trkpt>
<trkpt lat="31.7754500" lon="35.1033000">
<ele>538.059998</ele>
<time>2021-07-14T08:46:18.024Z</time>
</trkpt>
<trkpt lat="31.7754800" lon="35.1033400">
<ele>537.609985</ele>
<time>2021-07-14T08:46:18.024Z</time>
</trkpt>
<trkpt lat="31.7755200" lon="35.1034100">
<ele>537.910034</ele>
<time>2021-07-14T08:46:18.024Z</time>
</trkpt>
<trkpt lat="31.7755500" lon="35.1035200">
<ele>538.419983</ele>
<time>2021-07-14T08:46:18.024Z</time>
</trkpt>
<trkpt lat="31.7755500" lon="35.1035900">
<ele>538.940002</ele>
<time>2021-07-14T08:46:18.024Z</time>
</trkpt>
<trkpt lat="31.7755500" lon="35.1036600">
<ele>538.239990</ele>
<time>2021-07-14T08:46:18.024Z</time>
</trkpt>
<trkpt lat="31.7756200" lon="35.1039000">
<ele>533.580017</ele>
<time>2021-07-14T08:46:18.024Z</time>
</trkpt>
<trkpt lat="31.7757300" lon="35.1041800">
<ele>542.400024</ele>
<time>2021-07-14T08:46:18.024Z</time>
</trkpt>
<trkpt lat="31.7758100" lon="35.1044800">
<ele>547.400024</ele>
<time>2021-07-14T08:46:18.024Z</time>
</trkpt>
<trkpt lat="31.7758600" lon="35.1046300">
<ele>554.989990</ele>
<time>2021-07-14T08:46:18.024Z</time>
</trkpt>
<trkpt lat="31.7758900" lon="35.1049000">
<ele>560.969971</ele>
<time>2021-07-14T08:46:18.024Z</time>
</trkpt>
<trkpt lat="31.7759000" lon="35.1049600">
<ele>561.400024</ele>
<time>2021-07-14T08:46:18.024Z</time>
</trkpt>
<trkpt lat="31.7759200" lon="35.1050300">
<ele>562.250000</ele>
<time>2021-07-14T08:46:18.024Z</time>
</trkpt>
<trkpt lat="31.7759700" lon="35.1052300">
<ele>565.559998</ele>
<time>2021-07-14T08:46:18.024Z</time>
</trkpt>
<trkpt lat="31.7759900" lon="35.1053100">
<ele>565.270020</ele>
<time>2021-07-14T08:46:18.024Z</time>
</trkpt>
<trkpt lat="31.7760200" lon="35.1055800">
<ele>561.320007</ele>
<time>2021-07-14T08:46:18.024Z</time>
</trkpt>
<trkpt lat="31.7760200" lon="35.1056400">
<ele>562.260010</ele>
<time>2021-07-14T08:46:18.024Z</time>
</trkpt>
<trkpt lat="31.7760500" lon="35.1057700">
<ele>563.419983</ele>
<time>2021-07-14T08:46:18.024Z</time>
</trkpt>
<trkpt lat="31.7760800" lon="35.1060000">
<ele>564.450012</ele>
<time>2021-07-14T08:46:18.024Z</time>
</trkpt>
<trkpt lat="31.7761400" lon="35.1063000">
<ele>564.500000</ele>
<time>2021-07-14T08:46:18.024Z</time>
</trkpt>
<trkpt lat="31.7761700" lon="35.1065000">
<ele>563.900024</ele>
<time>2021-07-14T08:46:18.024Z</time>
</trkpt>
<trkpt lat="31.7762000" lon="35.1065900">
<ele>563.519958</ele>
<time>2021-07-14T08:46:18.024Z</time>
</trkpt>
<trkpt lat="31.7761800" lon="35.1069400">
<ele>573.109985</ele>
<time>2021-07-14T08:46:18.024Z</time>
</trkpt>
<trkpt lat="31.7761900" lon="35.1071600">
<ele>570.650024</ele>
<time>2021-07-14T08:46:18.024Z</time>
</trkpt>
<trkpt lat="31.7761900" lon="35.1074500">
<ele>568.480042</ele>
<time>2021-07-14T08:46:18.024Z</time>
</trkpt>
<trkpt lat="31.7761900" lon="35.1076100">
<ele>566.789978</ele>
<time>2021-07-14T08:46:18.024Z</time>
</trkpt>
<trkpt lat="31.7761900" lon="35.1076400">
<ele>566.419983</ele>
<time>2021-07-14T08:46:18.024Z</time>
</trkpt>
<trkpt lat="31.7762000" lon="35.1078700">
<ele>564.589966</ele>
<time>2021-07-14T08:46:18.024Z</time>
</trkpt>
<trkpt lat="31.7762200" lon="35.1081800">
<ele>560.440002</ele>
<time>2021-07-14T08:46:18.024Z</time>
</trkpt>
<trkpt lat="31.7762100" lon="35.1083900">
<ele>556.469971</ele>
<time>2021-07-14T08:46:18.024Z</time>
</trkpt>
<trkpt lat="31.7762600" lon="35.1086900">
<ele>558.989990</ele>
<time>2021-07-14T08:46:18.024Z</time>
</trkpt>
<trkpt lat="31.7763000" lon="35.1089700">
<ele>563.289978</ele>
<time>2021-07-14T08:46:18.024Z</time>
</trkpt>
<trkpt lat="31.7762000" lon="35.1092000">
<ele>562.429993</ele>
<time>2021-07-14T08:46:18.024Z</time>
</trkpt>
<trkpt lat="31.7761500" lon="35.1094800">
<ele>559.059998</ele>
<time>2021-07-14T08:46:18.024Z</time>
</trkpt>
<trkpt lat="31.7761400" lon="35.1095200">
<ele>559.260010</ele>
<time>2021-07-14T08:46:18.024Z</time>
</trkpt>
<trkpt lat="31.7761500" lon="35.1098100">
<ele>564.140015</ele>
<time>2021-07-14T08:46:18.024Z</time>
</trkpt>
<trkpt lat="31.7761600" lon="35.1098800">
<ele>564.849976</ele>
<time>2021-07-14T08:46:18.024Z</time>
</trkpt>
<trkpt lat="31.7761600" lon="35.1100000">
<ele>565.409973</ele>
<time>2021-07-14T08:46:18.024Z</time>
</trkpt>
<trkpt lat="31.7761500" lon="35.1101700">
<ele>565.029968</ele>
<time>2021-07-14T08:46:18.024Z</time>
</trkpt>
<trkpt lat="31.7762000" lon="35.1105900">
<ele>561.239990</ele>
<time>2021-07-14T08:46:18.024Z</time>
</trkpt>
<trkpt lat="31.7763400" lon="35.1110200">
<ele>564.200012</ele>
<time>2021-07-14T08:46:18.024Z</time>
</trkpt>
<trkpt lat="31.7763600" lon="35.1110600">
<ele>564.570007</ele>
<time>2021-07-14T08:46:18.024Z</time>
</trkpt>
<trkpt lat="31.7764200" lon="35.1112200">
<ele>567.150024</ele>
<time>2021-07-14T08:46:18.024Z</time>
</trkpt>
<trkpt lat="31.7764300" lon="35.1112300">
<ele>567.650024</ele>
<time>2021-07-14T08:46:18.024Z</time>
</trkpt>
<trkpt lat="31.7764800" lon="35.1114000">
<ele>570.679993</ele>
<time>2021-07-14T08:46:18.024Z</time>
</trkpt>
<trkpt lat="31.7764900" lon="35.1114200">
<ele>571.169983</ele>
<time>2021-07-14T08:46:18.024Z</time>
</trkpt>
<trkpt lat="31.7765400" lon="35.1116300">
<ele>573.149963</ele>
<time>2021-07-14T08:46:18.024Z</time>
</trkpt>
<trkpt lat="31.7765500" lon="35.1116800">
<ele>573.320007</ele>
<time>2021-07-14T08:46:18.024Z</time>
</trkpt>
<trkpt lat="31.7765800" lon="35.1117700">
<ele>573.450012</ele>
<time>2021-07-14T08:46:18.024Z</time>
</trkpt>
<trkpt lat="31.7766400" lon="35.1119300">
<ele>572.410034</ele>
<time>2021-07-14T08:46:18.024Z</time>
</trkpt>
<trkpt lat="31.7766600" lon="35.1119900">
<ele>572.239990</ele>
<time>2021-07-14T08:46:18.024Z</time>
</trkpt>
<trkpt lat="31.7767200" lon="35.1121400">
<ele>576.000000</ele>
<time>2021-07-14T08:46:18.024Z</time>
</trkpt>
<trkpt lat="31.7767700" lon="35.1124100">
<ele>576.859985</ele>
<time>2021-07-14T08:46:18.024Z</time>
</trkpt>
<trkpt lat="31.7768400" lon="35.1126800">
<ele>576.230042</ele>
<time>2021-07-14T08:46:18.024Z</time>
</trkpt>
<trkpt lat="31.7769300" lon="35.1129000">
<ele>575.169983</ele>
<time>2021-07-14T08:46:18.024Z</time>
</trkpt>
<trkpt lat="31.7770300" lon="35.1131100">
<ele>579.220032</ele>
<time>2021-07-14T08:46:18.024Z</time>
</trkpt>
<trkpt lat="31.7770700" lon="35.1131800">
<ele>580.599976</ele>
<time>2021-07-14T08:46:18.024Z</time>
</trkpt>
<trkpt lat="31.7771400" lon="35.1134000">
<ele>580.789978</ele>
<time>2021-07-14T08:46:18.024Z</time>
</trkpt>
<trkpt lat="31.7771600" lon="35.1136900">
<ele>579.900024</ele>
<time>2021-07-14T08:46:18.024Z</time>
</trkpt>
<trkpt lat="31.7771900" lon="35.1138400">
<ele>580.690002</ele>
<time>2021-07-14T08:46:18.024Z</time>
</trkpt>
<trkpt lat="31.7772300" lon="35.1141400">
<ele>582.190002</ele>
<time>2021-07-14T08:46:18.024Z</time>
</trkpt>
<trkpt lat="31.7772900" lon="35.1144600">
<ele>585.380005</ele>
<time>2021-07-14T08:46:18.024Z</time>
</trkpt>
<trkpt lat="31.7773700" lon="35.1146100">
<ele>585.289978</ele>
<time>2021-07-14T08:46:18.024Z</time>
</trkpt>
<trkpt lat="31.7774000" lon="35.1146900">
<ele>584.449951</ele>
<time>2021-07-14T08:46:18.024Z</time>
</trkpt>
<trkpt lat="31.7774700" lon="35.1149600">
<ele>582.570007</ele>
<time>2021-07-14T08:46:18.024Z</time>
</trkpt>
<trkpt lat="31.7774900" lon="35.1150200">
<ele>582.109985</ele>
<time>2021-07-14T08:46:18.024Z</time>
</trkpt>
<trkpt lat="31.7775000" lon="35.1152100">
<ele>582.000000</ele>
<time>2021-07-14T08:46:18.024Z</time>
</trkpt>
<trkpt lat="31.7775700" lon="35.1155100">
<ele>583.549988</ele>
<time>2021-07-14T08:46:18.024Z</time>
</trkpt>
<trkpt lat="31.7775700" lon="35.1155500">
<ele>583.729980</ele>
<time>2021-07-14T08:46:18.024Z</time>
</trkpt>
<trkpt lat="31.7776300" lon="35.1158800">
<ele>585.260010</ele>
<time>2021-07-14T08:46:18.024Z</time>
</trkpt>
<trkpt lat="31.7776400" lon="35.1160400">
<ele>585.150024</ele>
<time>2021-07-14T08:46:18.024Z</time>
</trkpt>
<trkpt lat="31.7775900" lon="35.1163100">
<ele>584.820007</ele>
<time>2021-07-14T08:46:18.024Z</time>
</trkpt>
<trkpt lat="31.7774100" lon="35.1165800">
<ele>585.109985</ele>
<time>2021-07-14T08:46:18.024Z</time>
</trkpt>
<trkpt lat="31.7773000" lon="35.1166900">
<ele>585.229980</ele>
<time>2021-07-14T08:46:18.024Z</time>
</trkpt>
<trkpt lat="31.7772100" lon="35.1167800">
<ele>585.489990</ele>
<time>2021-07-14T08:46:18.024Z</time>
</trkpt>
<trkpt lat="31.7772000" lon="35.1167100">
<ele>585.409973</ele>
<time>2021-07-14T08:46:18.024Z</time>
</trkpt>
<trkpt lat="31.7772100" lon="35.1166700">
<ele>585.190002</ele>
<time>2021-07-14T08:46:18.024Z</time>
</trkpt>
<trkpt lat="31.7772300" lon="35.1165000">
<ele>584.429993</ele>
<time>2021-07-14T08:46:18.024Z</time>
</trkpt>
<trkpt lat="31.7772900" lon="35.1163500">
<ele>584.489990</ele>
<time>2021-07-14T08:46:18.024Z</time>
</trkpt>
<trkpt lat="31.7773600" lon="35.1161400">
<ele>584.109985</ele>
<time>2021-07-14T08:46:18.024Z</time>
</trkpt>
<trkpt lat="31.7773900" lon="35.1158900">
<ele>583.479980</ele>
<time>2021-07-14T08:46:18.024Z</time>
</trkpt>
<trkpt lat="31.7772600" lon="35.1154900">
<ele>585.760010</ele>
<time>2021-07-14T08:46:18.024Z</time>
</trkpt>
<trkpt lat="31.7771400" lon="35.1153000">
<ele>589.289978</ele>
<time>2021-07-14T08:46:18.024Z</time>
</trkpt>
<trkpt lat="31.7769600" lon="35.1150800">
<ele>593.799988</ele>
<time>2021-07-14T08:46:18.024Z</time>
</trkpt>
<trkpt lat="31.7768400" lon="35.1147400">
<ele>595.510010</ele>
<time>2021-07-14T08:46:18.024Z</time>
</trkpt>
<trkpt lat="31.7767400" lon="35.1142200">
<ele>592.790039</ele>
<time>2021-07-14T08:46:18.024Z</time>
</trkpt>
<trkpt lat="31.7766100" lon="35.1137400">
<ele>593.210022</ele>
<time>2021-07-14T08:46:18.024Z</time>
</trkpt>
<trkpt lat="31.7763900" lon="35.1133000">
<ele>596.830017</ele>
<time>2021-07-14T08:46:18.024Z</time>
</trkpt>
<trkpt lat="31.7761900" lon="35.1129800">
<ele>598.250000</ele>
<time>2021-07-14T08:46:18.024Z</time>
</trkpt>
<trkpt lat="31.7760700" lon="35.1128300">
<ele>600.909973</ele>
<time>2021-07-14T08:46:18.024Z</time>
</trkpt>
<trkpt lat="31.7760300" lon="35.1127900">
<ele>601.539978</ele>
<time>2021-07-14T08:46:18.024Z</time>
</trkpt>
<trkpt lat="31.7758400" lon="35.1123600">
<ele>597.339966</ele>
<time>2021-07-14T08:46:18.024Z</time>
</trkpt>
<trkpt lat="31.7755500" lon="35.1117100">
<ele>589.010010</ele>
<time>2021-07-14T08:46:18.024Z</time>
</trkpt>
<trkpt lat="31.7754300" lon="35.1114000">
<ele>589.369995</ele>
<time>2021-07-14T08:46:18.024Z</time>
</trkpt>
<trkpt lat="31.7753500" lon="35.1112200">
<ele>591.099976</ele>
<time>2021-07-14T08:46:18.024Z</time>
</trkpt>
<trkpt lat="31.7750100" lon="35.1108700">
<ele>605.340027</ele>
<time>2021-07-14T08:46:18.024Z</time>
</trkpt>
<trkpt lat="31.7748800" lon="35.1107900">
<ele>604.570007</ele>
<time>2021-07-14T08:46:18.024Z</time>
</trkpt>
<trkpt lat="31.7746800" lon="35.1107900">
<ele>604.880005</ele>
<time>2021-07-14T08:46:18.024Z</time>
</trkpt>
<trkpt lat="31.7746100" lon="35.1107700">
<ele>605.309998</ele>
<time>2021-07-14T08:46:18.024Z</time>
</trkpt>
<trkpt lat="31.7745600" lon="35.1105800">
<ele>604.500000</ele>
<time>2021-07-14T08:46:18.024Z</time>
</trkpt>
<trkpt lat="31.7746200" lon="35.1104600">
<ele>603.130005</ele>
<time>2021-07-14T08:46:18.024Z</time>
</trkpt>
<trkpt lat="31.7746400" lon="35.1103200">
<ele>602.340027</ele>
<time>2021-07-14T08:46:18.024Z</time>
</trkpt>
<trkpt lat="31.7746500" lon="35.1102300">
<ele>602.890015</ele>
<time>2021-07-14T08:46:18.024Z</time>
</trkpt>
<trkpt lat="31.7746600" lon="35.1101600">
<ele>604.059998</ele>
<time>2021-07-14T08:46:18.024Z</time>
</trkpt>
<trkpt lat="31.7746600" lon="35.1101300">
<ele>604.610046</ele>
<time>2021-07-14T08:46:18.024Z</time>
</trkpt>
<trkpt lat="31.7746900" lon="35.1098700">
<ele>605.809998</ele>
<time>2021-07-14T08:46:18.024Z</time>
</trkpt>
<trkpt lat="31.7747000" lon="35.1097200">
<ele>604.309998</ele>
<time>2021-07-14T08:46:18.024Z</time>
</trkpt>
<trkpt lat="31.7747200" lon="35.1094600">
<ele>603.109985</ele>
<time>2021-07-14T08:46:18.024Z</time>
</trkpt>
<trkpt lat="31.7747200" lon="35.1094000">
<ele>603.219971</ele>
<time>2021-07-14T08:46:18.024Z</time>
</trkpt>
<trkpt lat="31.7747200" lon="35.1092800">
<ele>603.670044</ele>
<time>2021-07-14T08:46:18.024Z</time>
</trkpt>
<trkpt lat="31.7747300" lon="35.1090900">
<ele>604.710022</ele>
<time>2021-07-14T08:46:18.024Z</time>
</trkpt>
<trkpt lat="31.7747300" lon="35.1090100">
<ele>605.559998</ele>
<time>2021-07-14T08:46:18.024Z</time>
</trkpt>
<trkpt lat="31.7747300" lon="35.1089100">
<ele>606.630005</ele>
<time>2021-07-14T08:46:18.024Z</time>
</trkpt>
<trkpt lat="31.7747600" lon="35.1088600">
<ele>606.559998</ele>
<time>2021-07-14T08:46:18.024Z</time>
</trkpt>
<trkpt lat="31.7747800" lon="35.1088100">
<ele>606.650024</ele>
<time>2021-07-14T08:46:18.024Z</time>
</trkpt>
<trkpt lat="31.7749400" lon="35.1086100">
<ele>606.669983</ele>
<time>2021-07-14T08:46:18.024Z</time>
</trkpt>
<trkpt lat="31.7750900" lon="35.1083900">
<ele>608.750000</ele>
<time>2021-07-14T08:46:18.024Z</time>
</trkpt>
<trkpt lat="31.7752000" lon="35.1079600">
<ele>608.209961</ele>
<time>2021-07-14T08:46:18.024Z</time>
</trkpt>
<trkpt lat="31.7752000" lon="35.1078000">
<ele>608.619995</ele>
<time>2021-07-14T08:46:18.024Z</time>
</trkpt>
<trkpt lat="31.7751900" lon="35.1077000">
<ele>609.179993</ele>
<time>2021-07-14T08:46:18.024Z</time>
</trkpt>
<trkpt lat="31.7751400" lon="35.1072100">
<ele>607.959961</ele>
<time>2021-07-14T08:46:18.024Z</time>
</trkpt>
<trkpt lat="31.7751400" lon="35.1070500">
<ele>607.669983</ele>
<time>2021-07-14T08:46:18.024Z</time>
</trkpt>
<trkpt lat="31.7751300" lon="35.1066300">
<ele>608.070007</ele>
<time>2021-07-14T08:46:18.024Z</time>
</trkpt>
<trkpt lat="31.7751100" lon="35.1064700">
<ele>608.359985</ele>
<time>2021-07-14T08:46:18.024Z</time>
</trkpt>
<trkpt lat="31.7750600" lon="35.1060100">
<ele>604.380005</ele>
<time>2021-07-14T08:46:18.024Z</time>
</trkpt>
<trkpt lat="31.7749900" lon="35.1057800">
<ele>603.690002</ele>
<time>2021-07-14T08:46:18.024Z</time>
</trkpt>
<trkpt lat="31.7746400" lon="35.1053400">
<ele>609.579956</ele>
<time>2021-07-14T08:46:18.024Z</time>
</trkpt>
<trkpt lat="31.7745900" lon="35.1049300">
<ele>603.660034</ele>
<time>2021-07-14T08:46:18.024Z</time>
</trkpt>
<trkpt lat="31.7743600" lon="35.1045100">
<ele>608.280029</ele>
<time>2021-07-14T08:46:18.024Z</time>
</trkpt>
<trkpt lat="31.7741600" lon="35.1042000">
<ele>610.099976</ele>
<time>2021-07-14T08:46:18.024Z</time>
</trkpt>
<trkpt lat="31.7738600" lon="35.1038700">
<ele>601.140015</ele>
<time>2021-07-14T08:46:18.024Z</time>
</trkpt>
<trkpt lat="31.7735200" lon="35.1035300">
<ele>597.960022</ele>
<time>2021-07-14T08:46:18.024Z</time>
</trkpt>
<trkpt lat="31.7730900" lon="35.1033100">
<ele>601.989990</ele>
<time>2021-07-14T08:46:18.024Z</time>
</trkpt>
<trkpt lat="31.7729500" lon="35.1032700">
<ele>599.799988</ele>
<time>2021-07-14T08:46:18.024Z</time>
</trkpt>
<trkpt lat="31.7725900" lon="35.1030500">
<ele>593.770020</ele>
<time>2021-07-14T08:46:18.024Z</time>
</trkpt>
<trkpt lat="31.7721800" lon="35.1029500">
<ele>599.229980</ele>
<time>2021-07-14T08:46:18.024Z</time>
</trkpt>
<trkpt lat="31.7719400" lon="35.1028100">
<ele>600.919983</ele>
<time>2021-07-14T08:46:18.024Z</time>
</trkpt>
<trkpt lat="31.7718900" lon="35.1027800">
<ele>599.869995</ele>
<time>2021-07-14T08:46:18.024Z</time>
</trkpt>
<trkpt lat="31.7716600" lon="35.1026200">
<ele>594.400024</ele>
<time>2021-07-14T08:46:18.024Z</time>
</trkpt>
<trkpt lat="31.7715800" lon="35.1025600">
<ele>591.750000</ele>
<time>2021-07-14T08:46:18.024Z</time>
</trkpt>
<trkpt lat="31.7715000" lon="35.1025100">
<ele>588.970032</ele>
<time>2021-07-14T08:46:18.024Z</time>
</trkpt>
<trkpt lat="31.7709300" lon="35.1024500">
<ele>583.400024</ele>
<time>2021-07-14T08:46:18.024Z</time>
</trkpt>
<trkpt lat="31.7708000" lon="35.1024200">
<ele>582.139954</ele>
<time>2021-07-14T08:46:18.024Z</time>
</trkpt>
<trkpt lat="31.7707500" lon="35.1024100">
<ele>581.669983</ele>
<time>2021-07-14T08:46:18.024Z</time>
</trkpt>
<trkpt lat="31.7704300" lon="35.1024200">
<ele>582.139954</ele>
<time>2021-07-14T08:46:18.024Z</time>
</trkpt>
<trkpt lat="31.7702700" lon="35.1024600">
<ele>584.239990</ele>
<time>2021-07-14T08:46:18.024Z</time>
</trkpt>
<trkpt lat="31.7696300" lon="35.1026500">
<ele>573.169983</ele>
<time>2021-07-14T08:46:18.024Z</time>
</trkpt>
<trkpt lat="31.7693000" lon="35.1028900">
<ele>573.919983</ele>
<time>2021-07-14T08:46:18.024Z</time>
</trkpt>
<trkpt lat="31.7688500" lon="35.1031600">
<ele>570.859985</ele>
<time>2021-07-14T08:46:18.024Z</time>
</trkpt>
<trkpt lat="31.7687200" lon="35.1032100">
<ele>569.520020</ele>
<time>2021-07-14T08:46:18.024Z</time>
</trkpt>
<trkpt lat="31.7685700" lon="35.1032800">
<ele>569.070007</ele>
<time>2021-07-14T08:46:18.024Z</time>
</trkpt>
<trkpt lat="31.7684600" lon="35.1033600">
<ele>571.049988</ele>
<time>2021-07-14T08:46:18.024Z</time>
</trkpt>
<trkpt lat="31.7681600" lon="35.1037800">
<ele>575.469971</ele>
<time>2021-07-14T08:46:18.024Z</time>
</trkpt>
<trkpt lat="31.7681100" lon="35.1040000">
<ele>577.739990</ele>
<time>2021-07-14T08:46:18.024Z</time>
</trkpt>
<trkpt lat="31.7680700" lon="35.1042200">
<ele>578.500000</ele>
<time>2021-07-14T08:46:18.024Z</time>
</trkpt>
<trkpt lat="31.7680400" lon="35.1044300">
<ele>574.529968</ele>
<time>2021-07-14T08:46:18.024Z</time>
</trkpt>
<trkpt lat="31.7680400" lon="35.1046900">
<ele>571.820007</ele>
<time>2021-07-14T08:46:18.024Z</time>
</trkpt>
<trkpt lat="31.7680400" lon="35.1049500">
<ele>569.950012</ele>
<time>2021-07-14T08:46:18.024Z</time>
</trkpt>
<trkpt lat="31.7680200" lon="35.1051100">
<ele>570.100037</ele>
<time>2021-07-14T08:46:18.024Z</time>
</trkpt>
<trkpt lat="31.7678200" lon="35.1051100">
<ele>566.200012</ele>
<time>2021-07-14T08:46:18.024Z</time>
</trkpt>
<trkpt lat="31.7677600" lon="35.1050700">
<ele>564.700012</ele>
<time>2021-07-14T08:46:18.024Z</time>
</trkpt>
<trkpt lat="31.7676400" lon="35.1050100">
<ele>564.280029</ele>
<time>2021-07-14T08:46:18.024Z</time>
</trkpt>
<trkpt lat="31.7676100" lon="35.1049900">
<ele>564.159973</ele>
<time>2021-07-14T08:46:18.024Z</time>
</trkpt>
<trkpt lat="31.7674200" lon="35.1048300">
<ele>564.329956</ele>
<time>2021-07-14T08:46:18.024Z</time>
</trkpt>
<trkpt lat="31.7671400" lon="35.1046500">
<ele>561.440002</ele>
<time>2021-07-14T08:46:18.024Z</time>
</trkpt>
<trkpt lat="31.7668600" lon="35.1045800">
<ele>559.149963</ele>
<time>2021-07-14T08:46:18.024Z</time>
</trkpt>
<trkpt lat="31.7665600" lon="35.1046700">
<ele>559.230042</ele>
<time>2021-07-14T08:46:18.024Z</time>
</trkpt>
<trkpt lat="31.7661200" lon="35.1047900">
<ele>562.650024</ele>
<time>2021-07-14T08:46:18.024Z</time>
</trkpt>
<trkpt lat="31.7660000" lon="35.1048000">
<ele>566.380005</ele>
<time>2021-07-14T08:46:18.024Z</time>
</trkpt>
<trkpt lat="31.7657000" lon="35.1045900">
<ele>570.960022</ele>
<time>2021-07-14T08:46:18.024Z</time>
</trkpt>
<trkpt lat="31.7654200" lon="35.1040100">
<ele>568.809998</ele>
<time>2021-07-14T08:46:18.024Z</time>
</trkpt>
<trkpt lat="31.7650100" lon="35.1033800">
<ele>562.149963</ele>
<time>2021-07-14T08:46:18.024Z</time>
</trkpt>
<trkpt lat="31.7646000" lon="35.1029500">
<ele>553.690002</ele>
<time>2021-07-14T08:46:18.024Z</time>
</trkpt>
<trkpt lat="31.7645500" lon="35.1029100">
<ele>552.510010</ele>
<time>2021-07-14T08:46:18.024Z</time>
</trkpt>
<trkpt lat="31.7643000" lon="35.1027400">
<ele>551.679993</ele>
<time>2021-07-14T08:46:18.024Z</time>
</trkpt>
<trkpt lat="31.7641800" lon="35.1026700">
<ele>552.599976</ele>
<time>2021-07-14T08:46:18.024Z</time>
</trkpt>
<trkpt lat="31.7639100" lon="35.1026000">
<ele>553.059998</ele>
<time>2021-07-14T08:46:18.024Z</time>
</trkpt>
<trkpt lat="31.7638300" lon="35.1025800">
<ele>552.919983</ele>
<time>2021-07-14T08:46:18.024Z</time>
</trkpt>
<trkpt lat="31.7636300" lon="35.1024900">
<ele>552.500000</ele>
<time>2021-07-14T08:46:18.024Z</time>
</trkpt>
<trkpt lat="31.7635700" lon="35.1024600">
<ele>551.910034</ele>
<time>2021-07-14T08:46:18.024Z</time>
</trkpt>
<trkpt lat="31.7633000" lon="35.1022000">
<ele>542.570007</ele>
<time>2021-07-14T08:46:18.024Z</time>
</trkpt>
<trkpt lat="31.7628400" lon="35.1018000">
<ele>544.599976</ele>
<time>2021-07-14T08:46:18.024Z</time>
</trkpt>
<trkpt lat="31.7625800" lon="35.1015200">
<ele>538.150024</ele>
<time>2021-07-14T08:46:18.024Z</time>
</trkpt>
<trkpt lat="31.7625100" lon="35.1014600">
<ele>536.700012</ele>
<time>2021-07-14T08:46:18.024Z</time>
</trkpt>
<trkpt lat="31.7623300" lon="35.1012700">
<ele>526.210022</ele>
<time>2021-07-14T08:46:18.024Z</time>
</trkpt>
<trkpt lat="31.7620800" lon="35.1011300">
<ele>523.239990</ele>
<time>2021-07-14T08:46:18.024Z</time>
</trkpt>
<trkpt lat="31.7615600" lon="35.1010000">
<ele>532.779968</ele>
<time>2021-07-14T08:46:18.024Z</time>
</trkpt>
<trkpt lat="31.7614000" lon="35.1010000">
<ele>534.859985</ele>
<time>2021-07-14T08:46:18.024Z</time>
</trkpt>
<trkpt lat="31.7611600" lon="35.1011900">
<ele>534.770020</ele>
<time>2021-07-14T08:46:18.024Z</time>
</trkpt>
<trkpt lat="31.7610500" lon="35.1015400">
<ele>534.719971</ele>
<time>2021-07-14T08:46:18.024Z</time>
</trkpt>
<trkpt lat="31.7609900" lon="35.1018000">
<ele>531.950012</ele>
<time>2021-07-14T08:46:18.024Z</time>
</trkpt>
<trkpt lat="31.7609300" lon="35.1020400">
<ele>527.340027</ele>
<time>2021-07-14T08:46:18.024Z</time>
</trkpt>
<trkpt lat="31.7608700" lon="35.1021800">
<ele>524.089966</ele>
<time>2021-07-14T08:46:18.024Z</time>
</trkpt>
<trkpt lat="31.7608600" lon="35.1022300">
<ele>523.559998</ele>
<time>2021-07-14T08:46:18.024Z</time>
</trkpt>
<trkpt lat="31.7608200" lon="35.1024100">
<ele>522.209961</ele>
<time>2021-07-14T08:46:18.024Z</time>
</trkpt>
<trkpt lat="31.7607900" lon="35.1026700">
<ele>521.669983</ele>
<time>2021-07-14T08:46:18.024Z</time>
</trkpt>
<trkpt lat="31.7607300" lon="35.1029600">
<ele>517.479980</ele>
<time>2021-07-14T08:46:18.024Z</time>
</trkpt>
<trkpt lat="31.7606800" lon="35.1034800">
<ele>516.640015</ele>
<time>2021-07-14T08:46:18.024Z</time>
</trkpt>
<trkpt lat="31.7606700" lon="35.1037200">
<ele>517.729980</ele>
<time>2021-07-14T08:46:18.024Z</time>
</trkpt>
<trkpt lat="31.7607100" lon="35.1039900">
<ele>519.899963</ele>
<time>2021-07-14T08:46:18.024Z</time>
</trkpt>
<trkpt lat="31.7607000" lon="35.1041400">
<ele>518.399963</ele>
<time>2021-07-14T08:46:18.024Z</time>
</trkpt>
<trkpt lat="31.7606100" lon="35.1044200">
<ele>512.220032</ele>
<time>2021-07-14T08:46:18.024Z</time>
</trkpt>
<trkpt lat="31.7605700" lon="35.1045300">
<ele>509.579987</ele>
<time>2021-07-14T08:46:18.024Z</time>
</trkpt>
<trkpt lat="31.7605600" lon="35.1047000">
<ele>507.390015</ele>
<time>2021-07-14T08:46:18.024Z</time>
</trkpt>
<trkpt lat="31.7605700" lon="35.1048300">
<ele>507.099976</ele>
<time>2021-07-14T08:46:18.024Z</time>
</trkpt>
<trkpt lat="31.7605800" lon="35.1051100">
<ele>506.950012</ele>
<time>2021-07-14T08:46:18.024Z</time>
</trkpt>
<trkpt lat="31.7605200" lon="35.1052100">
<ele>504.720001</ele>
<time>2021-07-14T08:46:18.024Z</time>
</trkpt>
<trkpt lat="31.7604500" lon="35.1053000">
<ele>502.139984</ele>
<time>2021-07-14T08:46:18.024Z</time>
</trkpt>
<trkpt lat="31.7603500" lon="35.1055100">
<ele>497.360016</ele>
<time>2021-07-14T08:46:18.024Z</time>
</trkpt>
<trkpt lat="31.7603300" lon="35.1057100">
<ele>494.930023</ele>
<time>2021-07-14T08:46:18.024Z</time>
</trkpt>
<trkpt lat="31.7603400" lon="35.1058200">
<ele>494.360016</ele>
<time>2021-07-14T08:46:18.024Z</time>
</trkpt>
<trkpt lat="31.7604100" lon="35.1061400">
<ele>494.869995</ele>
<time>2021-07-14T08:46:18.024Z</time>
</trkpt>
<trkpt lat="31.7603300" lon="35.1065400">
<ele>494.149994</ele>
<time>2021-07-14T08:46:18.024Z</time>
</trkpt>
<trkpt lat="31.7601000" lon="35.1069600">
<ele>491.059998</ele>
<time>2021-07-14T08:46:18.024Z</time>
</trkpt>
<trkpt lat="31.7600400" lon="35.1071000">
<ele>491.230011</ele>
<time>2021-07-14T08:46:18.024Z</time>
</trkpt>
<trkpt lat="31.7598600" lon="35.1077800">
<ele>496.489990</ele>
<time>2021-07-14T08:46:18.024Z</time>
</trkpt>
<trkpt lat="31.7597800" lon="35.1079500">
<ele>496.190002</ele>
<time>2021-07-14T08:46:18.024Z</time>
</trkpt>
<trkpt lat="31.7597500" lon="35.1080900">
<ele>496.970001</ele>
<time>2021-07-14T08:46:18.024Z</time>
</trkpt>
<trkpt lat="31.7595600" lon="35.1083800">
<ele>496.779999</ele>
<time>2021-07-14T08:46:18.024Z</time>
</trkpt>
<trkpt lat="31.7592500" lon="35.1085200">
<ele>495.960022</ele>
<time>2021-07-14T08:46:18.024Z</time>
</trkpt>
<trkpt lat="31.7588600" lon="35.1086500">
<ele>497.330017</ele>
<time>2021-07-14T08:46:18.024Z</time>
</trkpt>
<trkpt lat="31.7585500" lon="35.1087200">
<ele>497.259979</ele>
<time>2021-07-14T08:46:18.024Z</time>
</trkpt>
<trkpt lat="31.7583000" lon="35.1086900">
<ele>496.179993</ele>
<time>2021-07-14T08:46:18.024Z</time>
</trkpt>
<trkpt lat="31.7579700" lon="35.1085300">
<ele>499.170013</ele>
<time>2021-07-14T08:46:18.024Z</time>
</trkpt>
<trkpt lat="31.7577100" lon="35.1084000">
<ele>502.699982</ele>
<time>2021-07-14T08:46:18.024Z</time>
</trkpt>
<trkpt lat="31.7574600" lon="35.1082800">
<ele>504.279999</ele>
<time>2021-07-14T08:46:18.024Z</time>
</trkpt>
<trkpt lat="31.7574100" lon="35.1083100">
<ele>504.420013</ele>
<time>2021-07-14T08:46:18.024Z</time>
</trkpt>
<trkpt lat="31.7573800" lon="35.1084500">
<ele>506.190002</ele>
<time>2021-07-14T08:46:18.024Z</time>
</trkpt>
<trkpt lat="31.7574800" lon="35.1086600">
<ele>508.450012</ele>
<time>2021-07-14T08:46:18.024Z</time>
</trkpt>
<trkpt lat="31.7575300" lon="35.1087000">
<ele>508.279999</ele>
<time>2021-07-14T08:46:18.024Z</time>
</trkpt>
<trkpt lat="31.7577200" lon="35.1089000">
<ele>508.500000</ele>
<time>2021-07-14T08:46:18.024Z</time>
</trkpt>
<trkpt lat="31.7579400" lon="35.1092700">
<ele>509.089996</ele>
<time>2021-07-14T08:46:18.024Z</time>
</trkpt>
<trkpt lat="31.7583200" lon="35.1094900">
<ele>509.589996</ele>
<time>2021-07-14T08:46:18.024Z</time>
</trkpt>
<trkpt lat="31.7587800" lon="35.1095100">
<ele>509.230011</ele>
<time>2021-07-14T08:46:18.024Z</time>
</trkpt>
<trkpt lat="31.7589900" lon="35.1095800">
<ele>511.660004</ele>
<time>2021-07-14T08:46:18.024Z</time>
</trkpt>
<trkpt lat="31.7590200" lon="35.1096200">
<ele>512.739990</ele>
<time>2021-07-14T08:46:18.024Z</time>
</trkpt>
<trkpt lat="31.7590500" lon="35.1097000">
<ele>514.679993</ele>
<time>2021-07-14T08:46:18.024Z</time>
</trkpt>
<trkpt lat="31.7590300" lon="35.1097600">
<ele>515.969971</ele>
<time>2021-07-14T08:46:18.024Z</time>
</trkpt>
<trkpt lat="31.7589800" lon="35.1098400">
<ele>517.619995</ele>
<time>2021-07-14T08:46:18.024Z</time>
</trkpt>
<trkpt lat="31.7587600" lon="35.1099600">
<ele>519.460022</ele>
<time>2021-07-14T08:46:18.024Z</time>
</trkpt>
<trkpt lat="31.7584600" lon="35.1100800">
<ele>520.479980</ele>
<time>2021-07-14T08:46:18.024Z</time>
</trkpt>
<trkpt lat="31.7582200" lon="35.1101700">
<ele>521.130005</ele>
<time>2021-07-14T08:46:18.024Z</time>
</trkpt>
<trkpt lat="31.7581700" lon="35.1104300">
<ele>522.989990</ele>
<time>2021-07-14T08:46:18.024Z</time>
</trkpt>
<trkpt lat="31.7583700" lon="35.1104400">
<ele>525.889954</ele>
<time>2021-07-14T08:46:18.024Z</time>
</trkpt>
<trkpt lat="31.7585700" lon="35.1103600">
<ele>527.239990</ele>
<time>2021-07-14T08:46:18.024Z</time>
</trkpt>
<trkpt lat="31.7586000" lon="35.1103700">
<ele>527.850037</ele>
<time>2021-07-14T08:46:18.024Z</time>
</trkpt>
<trkpt lat="31.7587500" lon="35.1105300">
<ele>532.040039</ele>
<time>2021-07-14T08:46:18.024Z</time>
</trkpt>
<trkpt lat="31.7588800" lon="35.1106800">
<ele>533.859985</ele>
<time>2021-07-14T08:46:18.024Z</time>
</trkpt>
<trkpt lat="31.7589000" lon="35.1107000">
<ele>534.000000</ele>
<time>2021-07-14T08:46:18.024Z</time>
</trkpt>
<trkpt lat="31.7589600" lon="35.1108400">
<ele>534.770020</ele>
<time>2021-07-14T08:46:18.024Z</time>
</trkpt>
<trkpt lat="31.7589500" lon="35.1108800">
<ele>534.979980</ele>
<time>2021-07-14T08:46:18.024Z</time>
</trkpt>
<trkpt lat="31.7588800" lon="35.1110500">
<ele>535.720032</ele>
<time>2021-07-14T08:46:18.024Z</time>
</trkpt>
<trkpt lat="31.7588700" lon="35.1111300">
<ele>535.940002</ele>
<time>2021-07-14T08:46:18.024Z</time>
</trkpt>
<trkpt lat="31.7588800" lon="35.1111500">
<ele>536.079956</ele>
<time>2021-07-14T08:46:18.024Z</time>
</trkpt>
<trkpt lat="31.7589100" lon="35.1111900">
<ele>536.369995</ele>
<time>2021-07-14T08:46:18.024Z</time>
</trkpt>
<trkpt lat="31.7589300" lon="35.1112000">
<ele>536.510010</ele>
<time>2021-07-14T08:46:18.024Z</time>
</trkpt>
<trkpt lat="31.7590100" lon="35.1112300">
<ele>537.169983</ele>
<time>2021-07-14T08:46:18.024Z</time>
</trkpt>
<trkpt lat="31.7590400" lon="35.1112300">
<ele>537.359985</ele>
<time>2021-07-14T08:46:18.024Z</time>
</trkpt>
<trkpt lat="31.7591000" lon="35.1112200">
<ele>537.580017</ele>
<time>2021-07-14T08:46:18.024Z</time>
</trkpt>
<trkpt lat="31.7591100" lon="35.1112100">
<ele>537.489990</ele>
<time>2021-07-14T08:46:18.024Z</time>
</trkpt>
<trkpt lat="31.7592500" lon="35.1111700">
<ele>537.470032</ele>
<time>2021-07-14T08:46:18.024Z</time>
</trkpt>
<trkpt lat="31.7593700" lon="35.1111200">
<ele>537.549988</ele>
<time>2021-07-14T08:46:18.024Z</time>
</trkpt>
<trkpt lat="31.7595500" lon="35.1109600">
<ele>537.000000</ele>
<time>2021-07-14T08:46:18.024Z</time>
</trkpt>
<trkpt lat="31.7597400" lon="35.1109000">
<ele>538.669983</ele>
<time>2021-07-14T08:46:18.024Z</time>
</trkpt>
<trkpt lat="31.7598900" lon="35.1108200">
<ele>539.029968</ele>
<time>2021-07-14T08:46:18.024Z</time>
</trkpt>
<trkpt lat="31.7600500" lon="35.1107500">
<ele>540.000000</ele>
<time>2021-07-14T08:46:18.024Z</time>
</trkpt>
<trkpt lat="31.7602900" lon="35.1105900">
<ele>542.510010</ele>
<time>2021-07-14T08:46:18.024Z</time>
</trkpt>
<trkpt lat="31.7605000" lon="35.1104400">
<ele>543.820007</ele>
<time>2021-07-14T08:46:18.024Z</time>
</trkpt>
<trkpt lat="31.7605200" lon="35.1104300">
<ele>544.049988</ele>
<time>2021-07-14T08:46:18.024Z</time>
</trkpt>
<trkpt lat="31.7605400" lon="35.1104200">
<ele>544.290039</ele>
<time>2021-07-14T08:46:18.024Z</time>
</trkpt>
<trkpt lat="31.7607900" lon="35.1102200">
<ele>545.489990</ele>
<time>2021-07-14T08:46:18.024Z</time>
</trkpt>
<trkpt lat="31.7609900" lon="35.1100600">
<ele>545.780029</ele>
<time>2021-07-14T08:46:18.024Z</time>
</trkpt>
<trkpt lat="31.7611800" lon="35.1099000">
<ele>547.049988</ele>
<time>2021-07-14T08:46:18.024Z</time>
</trkpt>
<trkpt lat="31.7613800" lon="35.1097300">
<ele>548.919983</ele>
<time>2021-07-14T08:46:18.024Z</time>
</trkpt>
<trkpt lat="31.7615200" lon="35.1095000">
<ele>552.070007</ele>
<time>2021-07-14T08:46:18.024Z</time>
</trkpt>
<trkpt lat="31.7615500" lon="35.1093900">
<ele>552.510010</ele>
<time>2021-07-14T08:46:18.024Z</time>
</trkpt>
<trkpt lat="31.7615800" lon="35.1093300">
<ele>553.400024</ele>
<time>2021-07-14T08:46:18.024Z</time>
</trkpt>
<trkpt lat="31.7616100" lon="35.1092200">
<ele>554.520020</ele>
<time>2021-07-14T08:46:18.024Z</time>
</trkpt>
<trkpt lat="31.7617200" lon="35.1089400">
<ele>559.340027</ele>
<time>2021-07-14T08:46:18.024Z</time>
</trkpt>
<trkpt lat="31.7617500" lon="35.1088600">
<ele>560.010010</ele>
<time>2021-07-14T08:46:18.024Z</time>
</trkpt>
<trkpt lat="31.7617800" lon="35.1088100">
<ele>560.510010</ele>
<time>2021-07-14T08:46:18.024Z</time>
</trkpt>
<trkpt lat="31.7617900" lon="35.1087700">
<ele>560.539978</ele>
<time>2021-07-14T08:46:18.024Z</time>
</trkpt>
<trkpt lat="31.7618200" lon="35.1086300">
<ele>560.320007</ele>
<time>2021-07-14T08:46:18.024Z</time>
</trkpt>
<trkpt lat="31.7618400" lon="35.1085400">
<ele>559.539978</ele>
<time>2021-07-14T08:46:18.024Z</time>
</trkpt>
<trkpt lat="31.7619200" lon="35.1081700">
<ele>556.070007</ele>
<time>2021-07-14T08:46:18.024Z</time>
</trkpt>
<trkpt lat="31.7619700" lon="35.1077200">
<ele>552.080017</ele>
<time>2021-07-14T08:46:18.024Z</time>
</trkpt>
<trkpt lat="31.7621600" lon="35.1075100">
<ele>556.780029</ele>
<time>2021-07-14T08:46:18.024Z</time>
</trkpt>
<trkpt lat="31.7623500" lon="35.1072700">
<ele>563.669983</ele>
<time>2021-07-14T08:46:18.024Z</time>
</trkpt>
<trkpt lat="31.7623000" lon="35.1068700">
<ele>563.160034</ele>
<time>2021-07-14T08:46:18.024Z</time>
</trkpt>
<trkpt lat="31.7624500" lon="35.1064600">
<ele>564.780029</ele>
<time>2021-07-14T08:46:18.024Z</time>
</trkpt>
<trkpt lat="31.7624400" lon="35.1060300">
<ele>563.030029</ele>
<time>2021-07-14T08:46:18.024Z</time>
</trkpt>
<trkpt lat="31.7623900" lon="35.1058700">
<ele>561.179993</ele>
<time>2021-07-14T08:46:18.024Z</time>
</trkpt>
<trkpt lat="31.7622300" lon="35.1055400">
<ele>559.059998</ele>
<time>2021-07-14T08:46:18.024Z</time>
</trkpt>
<trkpt lat="31.7622000" lon="35.1054900">
<ele>558.799988</ele>
<time>2021-07-14T08:46:18.024Z</time>
</trkpt>
<trkpt lat="31.7620100" lon="35.1050500">
<ele>556.790039</ele>
<time>2021-07-14T08:46:18.024Z</time>
</trkpt>
<trkpt lat="31.7619900" lon="35.1050000">
<ele>556.329956</ele>
<time>2021-07-14T08:46:18.024Z</time>
</trkpt>
<trkpt lat="31.7619600" lon="35.1048800">
<ele>556.110046</ele>
<time>2021-07-14T08:46:18.024Z</time>
</trkpt>
<trkpt lat="31.7619600" lon="35.1048200">
<ele>556.110046</ele>
<time>2021-07-14T08:46:18.024Z</time>
</trkpt>
<trkpt lat="31.7619600" lon="35.1046400">
<ele>555.570007</ele>
<time>2021-07-14T08:46:18.024Z</time>
</trkpt>
<trkpt lat="31.7619600" lon="35.1045900">
<ele>555.239990</ele>
<time>2021-07-14T08:46:18.024Z</time>
</trkpt>
<trkpt lat="31.7619900" lon="35.1042900">
<ele>554.910034</ele>
<time>2021-07-14T08:46:18.024Z</time>
</trkpt>
<trkpt lat="31.7620700" lon="35.1040500">
<ele>556.709961</ele>
<time>2021-07-14T08:46:18.024Z</time>
</trkpt>
<trkpt lat="31.7621300" lon="35.1037800">
<ele>557.750000</ele>
<time>2021-07-14T08:46:18.024Z</time>
</trkpt>
<trkpt lat="31.7621200" lon="35.1035000">
<ele>558.209961</ele>
<time>2021-07-14T08:46:18.024Z</time>
</trkpt>
<trkpt lat="31.7620700" lon="35.1031500">
<ele>560.690002</ele>
<time>2021-07-14T08:46:18.024Z</time>
</trkpt>
<trkpt lat="31.7620800" lon="35.1028200">
<ele>564.059998</ele>
<time>2021-07-14T08:46:18.024Z</time>
</trkpt>
<trkpt lat="31.7622900" lon="35.1027700">
<ele>568.659973</ele>
<time>2021-07-14T08:46:18.024Z</time>
</trkpt>
<trkpt lat="31.7624500" lon="35.1027600">
<ele>572.369995</ele>
<time>2021-07-14T08:46:18.024Z</time>
</trkpt>
<trkpt lat="31.7626200" lon="35.1027700">
<ele>573.360046</ele>
<time>2021-07-14T08:46:18.024Z</time>
</trkpt>
<trkpt lat="31.7626600" lon="35.1027900">
<ele>573.549988</ele>
<time>2021-07-14T08:46:18.024Z</time>
</trkpt>
<trkpt lat="31.7629500" lon="35.1029500">
<ele>572.909973</ele>
<time>2021-07-14T08:46:18.024Z</time>
</trkpt>
<trkpt lat="31.7631000" lon="35.1030400">
<ele>573.039978</ele>
<time>2021-07-14T08:46:18.024Z</time>
</trkpt>
<trkpt lat="31.7633100" lon="35.1032200">
<ele>573.520020</ele>
<time>2021-07-14T08:46:18.024Z</time>
</trkpt>
<trkpt lat="31.7633500" lon="35.1032500">
<ele>573.760010</ele>
<time>2021-07-14T08:46:18.024Z</time>
</trkpt>
<trkpt lat="31.7635000" lon="35.1033400">
<ele>575.079956</ele>
<time>2021-07-14T08:46:18.024Z</time>
</trkpt>
<trkpt lat="31.7636800" lon="35.1034600">
<ele>577.659973</ele>
<time>2021-07-14T08:46:18.024Z</time>
</trkpt>
<trkpt lat="31.7638200" lon="35.1035200">
<ele>579.359985</ele>
<time>2021-07-14T08:46:18.024Z</time>
</trkpt>
<trkpt lat="31.7638400" lon="35.1035200">
<ele>579.450012</ele>
<time>2021-07-14T08:46:18.024Z</time>
</trkpt>
<trkpt lat="31.7640300" lon="35.1035700">
<ele>581.630005</ele>
<time>2021-07-14T08:46:18.024Z</time>
</trkpt>
<trkpt lat="31.7642300" lon="35.1036600">
<ele>586.660034</ele>
<time>2021-07-14T08:46:18.024Z</time>
</trkpt>
<trkpt lat="31.7642600" lon="35.1037000">
<ele>588.250000</ele>
<time>2021-07-14T08:46:18.024Z</time>
</trkpt>
<trkpt lat="31.7643600" lon="35.1038300">
<ele>592.830017</ele>
<time>2021-07-14T08:46:18.024Z</time>
</trkpt>
<trkpt lat="31.7643500" lon="35.1038900">
<ele>593.989990</ele>
<time>2021-07-14T08:46:18.024Z</time>
</trkpt>
<trkpt lat="31.7643700" lon="35.1039400">
<ele>594.700012</ele>
<time>2021-07-14T08:46:18.024Z</time>
</trkpt>
<trkpt lat="31.7644400" lon="35.1041100">
<ele>597.330017</ele>
<time>2021-07-14T08:46:18.024Z</time>
</trkpt>
<trkpt lat="31.7645200" lon="35.1042700">
<ele>597.109985</ele>
<time>2021-07-14T08:46:18.024Z</time>
</trkpt>
<trkpt lat="31.7646000" lon="35.1044400">
<ele>596.859985</ele>
<time>2021-07-14T08:46:18.024Z</time>
</trkpt>
<trkpt lat="31.7646400" lon="35.1044900">
<ele>597.200012</ele>
<time>2021-07-14T08:46:18.024Z</time>
</trkpt>
<trkpt lat="31.7646600" lon="35.1045200">
<ele>597.479980</ele>
<time>2021-07-14T08:46:18.024Z</time>
</trkpt>
<trkpt lat="31.7646800" lon="35.1045700">
<ele>598.039978</ele>
<time>2021-07-14T08:46:18.024Z</time>
</trkpt>
<trkpt lat="31.7646100" lon="35.1046600">
<ele>599.600037</ele>
<time>2021-07-14T08:46:18.024Z</time>
</trkpt>
<trkpt lat="31.7645500" lon="35.1047000">
<ele>600.349976</ele>
<time>2021-07-14T08:46:18.024Z</time>
</trkpt>
<trkpt lat="31.7644800" lon="35.1047500">
<ele>601.270020</ele>
<time>2021-07-14T08:46:18.024Z</time>
</trkpt>
<trkpt lat="31.7644500" lon="35.1047700">
<ele>601.669983</ele>
<time>2021-07-14T08:46:18.024Z</time>
</trkpt>
<trkpt lat="31.7644100" lon="35.1048600">
<ele>602.119995</ele>
<time>2021-07-14T08:46:18.024Z</time>
</trkpt>
<trkpt lat="31.7644100" lon="35.1050900">
<ele>605.789978</ele>
<time>2021-07-14T08:46:18.024Z</time>
</trkpt>
<trkpt lat="31.7644300" lon="35.1052200">
<ele>608.640015</ele>
<time>2021-07-14T08:46:18.024Z</time>
</trkpt>
<trkpt lat="31.7644600" lon="35.1053000">
<ele>609.880005</ele>
<time>2021-07-14T08:46:18.024Z</time>
</trkpt>
<trkpt lat="31.7644800" lon="35.1053400">
<ele>609.809998</ele>
<time>2021-07-14T08:46:18.024Z</time>
</trkpt>
<trkpt lat="31.7644900" lon="35.1054000">
<ele>610.059998</ele>
<time>2021-07-14T08:46:18.024Z</time>
</trkpt>
<trkpt lat="31.7645300" lon="35.1054900">
<ele>609.989990</ele>
<time>2021-07-14T08:46:18.024Z</time>
</trkpt>
<trkpt lat="31.7645700" lon="35.1055400">
<ele>609.630005</ele>
<time>2021-07-14T08:46:18.024Z</time>
</trkpt>
<trkpt lat="31.7645800" lon="35.1056000">
<ele>610.109985</ele>
<time>2021-07-14T08:46:18.024Z</time>
</trkpt>
<trkpt lat="31.7646300" lon="35.1057100">
<ele>610.890015</ele>
<time>2021-07-14T08:46:18.024Z</time>
</trkpt>
<trkpt lat="31.7646700" lon="35.1058900">
<ele>613.080017</ele>
<time>2021-07-14T08:46:18.024Z</time>
</trkpt>
<trkpt lat="31.7647200" lon="35.1060700">
<ele>615.400024</ele>
<time>2021-07-14T08:46:18.024Z</time>
</trkpt>
<trkpt lat="31.7647700" lon="35.1062000">
<ele>617.090027</ele>
<time>2021-07-14T08:46:18.024Z</time>
</trkpt>
<trkpt lat="31.7648400" lon="35.1063200">
<ele>618.989990</ele>
<time>2021-07-14T08:46:18.024Z</time>
</trkpt>
<trkpt lat="31.7649100" lon="35.1063700">
<ele>620.479980</ele>
<time>2021-07-14T08:46:18.024Z</time>
</trkpt>
<trkpt lat="31.7650300" lon="35.1064700">
<ele>622.840027</ele>
<time>2021-07-14T08:46:18.024Z</time>
</trkpt>
<trkpt lat="31.7651400" lon="35.1066600">
<ele>624.440002</ele>
<time>2021-07-14T08:46:18.024Z</time>
</trkpt>
<trkpt lat="31.7655300" lon="35.1067100">
<ele>618.849976</ele>
<time>2021-07-14T08:46:18.024Z</time>
</trkpt>
<trkpt lat="31.7658600" lon="35.1066100">
<ele>612.679993</ele>
<time>2021-07-14T08:46:18.024Z</time>
</trkpt>
<trkpt lat="31.7663100" lon="35.1064500">
<ele>609.869995</ele>
<time>2021-07-14T08:46:18.024Z</time>
</trkpt>
<trkpt lat="31.7667800" lon="35.1063200">
<ele>625.640015</ele>
<time>2021-07-14T08:46:18.024Z</time>
</trkpt>
<trkpt lat="31.7671700" lon="35.1064100">
<ele>631.960022</ele>
<time>2021-07-14T08:46:18.024Z</time>
</trkpt>
<trkpt lat="31.7675400" lon="35.1066900">
<ele>637.159973</ele>
<time>2021-07-14T08:46:18.024Z</time>
</trkpt>
<trkpt lat="31.7678400" lon="35.1069300">
<ele>640.479980</ele>
<time>2021-07-14T08:46:18.024Z</time>
</trkpt>
<trkpt lat="31.7682700" lon="35.1072000">
<ele>643.269958</ele>
<time>2021-07-14T08:46:18.024Z</time>
</trkpt>
<trkpt lat="31.7687300" lon="35.1073800">
<ele>637.700012</ele>
<time>2021-07-14T08:46:18.024Z</time>
</trkpt>
<trkpt lat="31.7691000" lon="35.1074900">
<ele>640.850037</ele>
<time>2021-07-14T08:46:18.024Z</time>
</trkpt>
<trkpt lat="31.7693800" lon="35.1069900">
<ele>639.169983</ele>
<time>2021-07-14T08:46:18.024Z</time>
</trkpt>
<trkpt lat="31.7696700" lon="35.1064900">
<ele>643.049988</ele>
<time>2021-07-14T08:46:18.024Z</time>
</trkpt>
<trkpt lat="31.7700800" lon="35.1059100">
<ele>649.809998</ele>
<time>2021-07-14T08:46:18.024Z</time>
</trkpt>
<trkpt lat="31.7702800" lon="35.1055700">
<ele>654.970032</ele>
<time>2021-07-14T08:46:18.024Z</time>
</trkpt>
<trkpt lat="31.7706100" lon="35.1048800">
<ele>654.140015</ele>
<time>2021-07-14T08:46:18.024Z</time>
</trkpt>
<trkpt lat="31.7707200" lon="35.1047500">
<ele>654.299988</ele>
<time>2021-07-14T08:46:18.024Z</time>
</trkpt>
<trkpt lat="31.7709600" lon="35.1046500">
<ele>659.890015</ele>
<time>2021-07-14T08:46:18.024Z</time>
</trkpt>
<trkpt lat="31.7713200" lon="35.1046000">
<ele>669.109985</ele>
<time>2021-07-14T08:46:18.024Z</time>
</trkpt>
<trkpt lat="31.7717500" lon="35.1046600">
<ele>672.209961</ele>
<time>2021-07-14T08:46:18.024Z</time>
</trkpt>
<trkpt lat="31.7722100" lon="35.1048200">
<ele>665.509949</ele>
<time>2021-07-14T08:46:18.024Z</time>
</trkpt>
<trkpt lat="31.7725300" lon="35.1049900">
<ele>657.580017</ele>
<time>2021-07-14T08:46:18.024Z</time>
</trkpt>
<trkpt lat="31.7728800" lon="35.1052000">
<ele>668.509949</ele>
<time>2021-07-14T08:46:18.024Z</time>
</trkpt>
<trkpt lat="31.7730800" lon="35.1054700">
<ele>669.359985</ele>
<time>2021-07-14T08:46:18.024Z</time>
</trkpt>
<trkpt lat="31.7732500" lon="35.1056800">
<ele>665.360046</ele>
<time>2021-07-14T08:46:18.024Z</time>
</trkpt>
<trkpt lat="31.7733600" lon="35.1059600">
<ele>668.559998</ele>
<time>2021-07-14T08:46:18.024Z</time>
</trkpt>
<trkpt lat="31.7734800" lon="35.1062900">
<ele>671.219971</ele>
<time>2021-07-14T08:46:18.024Z</time>
</trkpt>
<trkpt lat="31.7736100" lon="35.1066000">
<ele>673.070007</ele>
<time>2021-07-14T08:46:18.024Z</time>
</trkpt>
<trkpt lat="31.7736900" lon="35.1068600">
<ele>673.770020</ele>
<time>2021-07-14T08:46:18.024Z</time>
</trkpt>
<trkpt lat="31.7737700" lon="35.1071400">
<ele>671.979980</ele>
<time>2021-07-14T08:46:18.024Z</time>
</trkpt>
<trkpt lat="31.7737900" lon="35.1073800">
<ele>670.760010</ele>
<time>2021-07-14T08:46:18.024Z</time>
</trkpt>
<trkpt lat="31.7737200" lon="35.1077100">
<ele>669.000000</ele>
<time>2021-07-14T08:46:18.024Z</time>
</trkpt>
<trkpt lat="31.7736100" lon="35.1079800">
<ele>669.740051</ele>
<time>2021-07-14T08:46:18.024Z</time>
</trkpt>
<trkpt lat="31.7735200" lon="35.1084700">
<ele>669.830017</ele>
<time>2021-07-14T08:46:18.024Z</time>
</trkpt>
<trkpt lat="31.7733400" lon="35.1089500">
<ele>673.640015</ele>
<time>2021-07-14T08:46:18.024Z</time>
</trkpt>
<trkpt lat="31.7731900" lon="35.1094600">
<ele>673.409973</ele>
<time>2021-07-14T08:46:18.024Z</time>
</trkpt>
<trkpt lat="31.7730300" lon="35.1098700">
<ele>673.510010</ele>
<time>2021-07-14T08:46:18.024Z</time>
</trkpt>
<trkpt lat="31.7728200" lon="35.1102700">
<ele>672.929993</ele>
<time>2021-07-14T08:46:18.024Z</time>
</trkpt>
<trkpt lat="31.7726500" lon="35.1105800">
<ele>674.869995</ele>
<time>2021-07-14T08:46:18.024Z</time>
</trkpt>
<trkpt lat="31.7725000" lon="35.1108000">
<ele>675.999939</ele>
<time>2021-07-14T08:46:18.024Z</time>
</trkpt>
<trkpt lat="31.7724900" lon="35.1109100">
<ele>677.039978</ele>
<time>2021-07-14T08:46:18.024Z</time>
</trkpt>
<trkpt lat="31.7727300" lon="35.1113200">
<ele>679.160034</ele>
<time>2021-07-14T08:46:18.024Z</time>
</trkpt>
<trkpt lat="31.7730200" lon="35.1117500">
<ele>675.820007</ele>
<time>2021-07-14T08:46:18.024Z</time>
</trkpt>
<trkpt lat="31.7733300" lon="35.1122200">
<ele>677.050049</ele>
<time>2021-07-14T08:46:18.024Z</time>
</trkpt>
<trkpt lat="31.7734500" lon="35.1123400">
<ele>681.059998</ele>
<time>2021-07-14T08:46:18.024Z</time>
</trkpt>
<trkpt lat="31.7736500" lon="35.1124700">
<ele>684.479980</ele>
<time>2021-07-14T08:46:18.024Z</time>
</trkpt>
<trkpt lat="31.7740200" lon="35.1126100">
<ele>682.250000</ele>
<time>2021-07-14T08:46:18.024Z</time>
</trkpt>
<trkpt lat="31.7743200" lon="35.1127800">
<ele>678.709961</ele>
<time>2021-07-14T08:46:18.024Z</time>
</trkpt>
<trkpt lat="31.7744900" lon="35.1130600">
<ele>678.080017</ele>
<time>2021-07-14T08:46:18.024Z</time>
</trkpt>
<trkpt lat="31.7746300" lon="35.1132900">
<ele>678.179993</ele>
<time>2021-07-14T08:46:18.024Z</time>
</trkpt>
<trkpt lat="31.7747600" lon="35.1136900">
<ele>682.070007</ele>
<time>2021-07-14T08:46:18.024Z</time>
</trkpt>
<trkpt lat="31.7749000" lon="35.1141000">
<ele>685.049988</ele>
<time>2021-07-14T08:46:18.024Z</time>
</trkpt>
<trkpt lat="31.7749300" lon="35.1146200">
<ele>689.380005</ele>
<time>2021-07-14T08:46:18.024Z</time>
</trkpt>
<trkpt lat="31.7749100" lon="35.1152000">
<ele>689.510010</ele>
<time>2021-07-14T08:46:18.024Z</time>
</trkpt>
<trkpt lat="31.7748800" lon="35.1157300">
<ele>689.380005</ele>
<time>2021-07-14T08:46:18.024Z</time>
</trkpt>
<trkpt lat="31.7748600" lon="35.1163000">
<ele>686.470032</ele>
<time>2021-07-14T08:46:18.024Z</time>
</trkpt>
<trkpt lat="31.7747100" lon="35.1168100">
<ele>687.510010</ele>
<time>2021-07-14T08:46:18.024Z</time>
</trkpt>
<trkpt lat="31.7745400" lon="35.1173000">
<ele>686.640015</ele>
<time>2021-07-14T08:46:18.024Z</time>
</trkpt>
<trkpt lat="31.7744000" lon="35.1176500">
<ele>690.169983</ele>
<time>2021-07-14T08:46:18.024Z</time>
</trkpt>
<trkpt lat="31.7743100" lon="35.1180100">
<ele>691.610046</ele>
<time>2021-07-14T08:46:18.024Z</time>
</trkpt>
<trkpt lat="31.7742700" lon="35.1182100">
<ele>693.619995</ele>
<time>2021-07-14T08:46:18.024Z</time>
</trkpt>
<trkpt lat="31.7743400" lon="35.1186200">
<ele>697.430054</ele>
<time>2021-07-14T08:46:18.024Z</time>
</trkpt>
<trkpt lat="31.7745500" lon="35.1191800">
<ele>696.260010</ele>
<time>2021-07-14T08:46:18.024Z</time>
</trkpt>
<trkpt lat="31.7748500" lon="35.1197700">
<ele>695.489990</ele>
<time>2021-07-14T08:46:18.024Z</time>
</trkpt>
<trkpt lat="31.7751100" lon="35.1203200">
<ele>694.629944</ele>
<time>2021-07-14T08:46:18.024Z</time>
</trkpt>
<trkpt lat="31.7754400" lon="35.1209600">
<ele>691.170044</ele>
<time>2021-07-14T08:46:18.024Z</time>
</trkpt>
<trkpt lat="31.7757100" lon="35.1216000">
<ele>689.929993</ele>
<time>2021-07-14T08:46:18.024Z</time>
</trkpt>
<trkpt lat="31.7758700" lon="35.1220100">
<ele>689.369995</ele>
<time>2021-07-14T08:46:18.024Z</time>
</trkpt>
<trkpt lat="31.7759700" lon="35.1223900">
<ele>689.130005</ele>
<time>2021-07-14T08:46:18.024Z</time>
</trkpt>
<trkpt lat="31.7760600" lon="35.1227800">
<ele>689.369995</ele>
<time>2021-07-14T08:46:18.024Z</time>
</trkpt>
<trkpt lat="31.7760700" lon="35.1232800">
<ele>688.489990</ele>
<time>2021-07-14T08:46:18.024Z</time>
</trkpt>
<trkpt lat="31.7760600" lon="35.1233300">
<ele>688.380005</ele>
<time>2021-07-14T08:46:18.024Z</time>
</trkpt>
<trkpt lat="31.7760600" lon="35.1233300">
<ele>688.380005</ele>
<time>2021-07-14T08:46:18.024Z</time>
</trkpt>
<trkpt lat="31.7760700" lon="35.1233300">
<ele>688.309998</ele>
<time>2021-07-14T08:46:18.024Z</time>
</trkpt>
<trkpt lat="31.7760600" lon="35.1234200">
<ele>688.309998</ele>
<time>2021-07-14T08:46:18.024Z</time>
</trkpt>
<trkpt lat="31.7760400" lon="35.1237000">
<ele>688.489990</ele>
<time>2021-07-14T08:46:18.024Z</time>
</trkpt>
<trkpt lat="31.7760200" lon="35.1239300">
<ele>689.099976</ele>
<time>2021-07-14T08:46:18.024Z</time>
</trkpt>
<trkpt lat="31.7758900" lon="35.1243300">
<ele>689.199951</ele>
<time>2021-07-14T08:46:18.024Z</time>
</trkpt>
<trkpt lat="31.7759200" lon="35.1254600">
<ele>689.199951</ele>
<time>2021-07-14T08:46:18.024Z</time>
</trkpt>
<trkpt lat="31.7759900" lon="35.1256200">
<ele>690.390015</ele>
<time>2021-07-14T08:46:18.024Z</time>
</trkpt>
<trkpt lat="31.7761300" lon="35.1259500">
<ele>695.470032</ele>
<time>2021-07-14T08:46:18.024Z</time>
</trkpt>
<trkpt lat="31.7761800" lon="35.1260400">
<ele>696.349976</ele>
<time>2021-07-14T08:46:18.024Z</time>
</trkpt>
<trkpt lat="31.7757400" lon="35.1258300">
<ele>691.299988</ele>
<time>2021-07-14T08:46:18.024Z</time>
</trkpt>
<trkpt lat="31.7756400" lon="35.1257600">
<ele>690.000000</ele>
<time>2021-07-14T08:46:18.024Z</time>
</trkpt>
<trkpt lat="31.7739800" lon="35.1247200">
<ele>707.380005</ele>
<time>2021-07-14T08:46:18.024Z</time>
</trkpt>
<trkpt lat="31.7737800" lon="35.1245600">
<ele>712.000000</ele>
<time>2021-07-14T08:46:18.024Z</time>
</trkpt>
<trkpt lat="31.7737300" lon="35.1245000">
<ele>713.629944</ele>
<time>2021-07-14T08:46:18.024Z</time>
</trkpt>
<trkpt lat="31.7736500" lon="35.1243700">
<ele>715.919983</ele>
<time>2021-07-14T08:46:18.024Z</time>
</trkpt>
<trkpt lat="31.7736100" lon="35.1242400">
<ele>717.190002</ele>
<time>2021-07-14T08:46:18.024Z</time>
</trkpt>
<trkpt lat="31.7735900" lon="35.1240900">
<ele>718.659973</ele>
<time>2021-07-14T08:46:18.024Z</time>
</trkpt>
<trkpt lat="31.7736100" lon="35.1235500">
<ele>722.969971</ele>
<time>2021-07-14T08:46:18.024Z</time>
</trkpt>
<trkpt lat="31.7736100" lon="35.1235500">
<ele>722.969971</ele>
<time>2021-07-14T08:46:18.024Z</time>
</trkpt>
<trkpt lat="31.7736000" lon="35.1235500">
<ele>722.729980</ele>
<time>2021-07-14T08:46:18.024Z</time>
</trkpt>
<trkpt lat="31.7736100" lon="35.1232700">
<ele>722.750000</ele>
<time>2021-07-14T08:46:18.024Z</time>
</trkpt>
<trkpt lat="31.7736600" lon="35.1229200">
<ele>723.459961</ele>
<time>2021-07-14T08:46:18.024Z</time>
</trkpt>
<trkpt lat="31.7737700" lon="35.1226000">
<ele>725.839966</ele>
<time>2021-07-14T08:46:18.024Z</time>
</trkpt>
<trkpt lat="31.7737900" lon="35.1228200">
<ele>725.720032</ele>
<time>2021-07-14T08:46:18.024Z</time>
</trkpt>
<trkpt lat="31.7738000" lon="35.1230300">
<ele>726.660034</ele>
<time>2021-07-14T08:46:18.024Z</time>
</trkpt>
<trkpt lat="31.7738400" lon="35.1231400">
<ele>727.820007</ele>
<time>2021-07-14T08:46:18.024Z</time>
</trkpt>
<trkpt lat="31.7738900" lon="35.1232000">
<ele>728.999939</ele>
<time>2021-07-14T08:46:18.024Z</time>
</trkpt>
<trkpt lat="31.7739500" lon="35.1232300">
<ele>728.940002</ele>
<time>2021-07-14T08:46:18.024Z</time>
</trkpt>
<trkpt lat="31.7741000" lon="35.1232300">
<ele>728.809998</ele>
<time>2021-07-14T08:46:18.024Z</time>
</trkpt>
<trkpt lat="31.7742400" lon="35.1231900">
<ele>728.780029</ele>
<time>2021-07-14T08:46:18.024Z</time>
</trkpt>
<trkpt lat="31.7743300" lon="35.1231400">
<ele>729.259949</ele>
<time>2021-07-14T08:46:18.024Z</time>
</trkpt>
<trkpt lat="31.7744100" lon="35.1230800">
<ele>730.390015</ele>
<time>2021-07-14T08:46:18.024Z</time>
</trkpt>
<trkpt lat="31.7744600" lon="35.1230100">
<ele>731.449951</ele>
<time>2021-07-14T08:46:18.024Z</time>
</trkpt>
<trkpt lat="31.7745100" lon="35.1228800">
<ele>732.889954</ele>
<time>2021-07-14T08:46:18.024Z</time>
</trkpt>
<trkpt lat="31.7745500" lon="35.1226900">
<ele>734.260010</ele>
<time>2021-07-14T08:46:18.024Z</time>
</trkpt>
<trkpt lat="31.7745900" lon="35.1223900">
<ele>734.269958</ele>
<time>2021-07-14T08:46:18.024Z</time>
</trkpt>
<trkpt lat="31.7745500" lon="35.1220300">
<ele>733.600037</ele>
<time>2021-07-14T08:46:18.024Z</time>
</trkpt>
<trkpt lat="31.7745500" lon="35.1220300">
<ele>733.600037</ele>
<time>2021-07-14T08:46:18.024Z</time>
</trkpt>
<trkpt lat="31.7745500" lon="35.1220100">
<ele>733.659973</ele>
<time>2021-07-14T08:46:18.024Z</time>
</trkpt>
<trkpt lat="31.7745000" lon="35.1214400">
<ele>735.759949</ele>
<time>2021-07-14T08:46:18.024Z</time>
</trkpt>
<trkpt lat="31.7744200" lon="35.1210500">
<ele>734.949951</ele>
<time>2021-07-14T08:46:18.024Z</time>
</trkpt>
<trkpt lat="31.7741600" lon="35.1207400">
<ele>735.979980</ele>
<time>2021-07-14T08:46:18.024Z</time>
</trkpt>
<trkpt lat="31.7739300" lon="35.1204400">
<ele>733.589966</ele>
<time>2021-07-14T08:46:18.024Z</time>
</trkpt>
<trkpt lat="31.7737000" lon="35.1202800">
<ele>736.390015</ele>
<time>2021-07-14T08:46:18.024Z</time>
</trkpt>
<trkpt lat="31.7735300" lon="35.1200100">
<ele>737.000000</ele>
<time>2021-07-14T08:46:18.024Z</time>
</trkpt>
<trkpt lat="31.7735000" lon="35.1200200">
<ele>736.990051</ele>
<time>2021-07-14T08:46:18.024Z</time>
</trkpt>
<trkpt lat="31.7733900" lon="35.1198200">
<ele>739.059998</ele>
<time>2021-07-14T08:46:18.024Z</time>
</trkpt>
<trkpt lat="31.7733800" lon="35.1198100">
<ele>739.279968</ele>
<time>2021-07-14T08:46:18.024Z</time>
</trkpt>
<trkpt lat="31.7733700" lon="35.1198100">
<ele>739.369995</ele>
<time>2021-07-14T08:46:18.024Z</time>
</trkpt>
<trkpt lat="31.7733700" lon="35.1198100">
<ele>739.369995</ele>
<time>2021-07-14T08:46:18.024Z</time>
</trkpt>
<trkpt lat="31.7729900" lon="35.1192800">
<ele>745.820007</ele>
<time>2021-07-14T08:46:18.024Z</time>
</trkpt>
<trkpt lat="31.7728500" lon="35.1191600">
<ele>747.779968</ele>
<time>2021-07-14T08:46:18.024Z</time>
</trkpt>
<trkpt lat="31.7726600" lon="35.1190400">
<ele>748.259949</ele>
<time>2021-07-14T08:46:18.024Z</time>
</trkpt>
<trkpt lat="31.7725700" lon="35.1189500">
<ele>748.649963</ele>
<time>2021-07-14T08:46:18.024Z</time>
</trkpt>
<trkpt lat="31.7721000" lon="35.1183700">
<ele>744.309998</ele>
<time>2021-07-14T08:46:18.024Z</time>
</trkpt>
<trkpt lat="31.7720800" lon="35.1183000">
<ele>745.110046</ele>
<time>2021-07-14T08:46:18.024Z</time>
</trkpt>
<trkpt lat="31.7721100" lon="35.1182500">
<ele>745.900024</ele>
<time>2021-07-14T08:46:18.024Z</time>
</trkpt>
<trkpt lat="31.7722200" lon="35.1182600">
<ele>745.329956</ele>
<time>2021-07-14T08:46:18.024Z</time>
</trkpt>
<trkpt lat="31.7725200" lon="35.1183900">
<ele>747.530029</ele>
<time>2021-07-14T08:46:18.024Z</time>
</trkpt>
<trkpt lat="31.7727300" lon="35.1184300">
<ele>752.760010</ele>
<time>2021-07-14T08:46:18.024Z</time>
</trkpt>
<trkpt lat="31.7728500" lon="35.1183900">
<ele>754.590027</ele>
<time>2021-07-14T08:46:18.024Z</time>
</trkpt>
<trkpt lat="31.7729600" lon="35.1182700">
<ele>756.100037</ele>
<time>2021-07-14T08:46:18.024Z</time>
</trkpt>
<trkpt lat="31.7730500" lon="35.1181200">
<ele>758.239990</ele>
<time>2021-07-14T08:46:18.024Z</time>
</trkpt>
<trkpt lat="31.7732300" lon="35.1176200">
<ele>758.450012</ele>
<time>2021-07-14T08:46:18.024Z</time>
</trkpt>
<trkpt lat="31.7732700" lon="35.1174900">
<ele>759.260010</ele>
<time>2021-07-14T08:46:18.024Z</time>
</trkpt>
<trkpt lat="31.7732700" lon="35.1173900">
<ele>760.419983</ele>
<time>2021-07-14T08:46:18.024Z</time>
</trkpt>
<trkpt lat="31.7732400" lon="35.1172500">
<ele>762.679993</ele>
<time>2021-07-14T08:46:18.024Z</time>
</trkpt>
<trkpt lat="31.7732000" lon="35.1171700">
<ele>763.969971</ele>
<time>2021-07-14T08:46:18.024Z</time>
</trkpt>
<trkpt lat="31.7730200" lon="35.1169400">
<ele>767.979980</ele>
<time>2021-07-14T08:46:18.024Z</time>
</trkpt>
<trkpt lat="31.7728800" lon="35.1166600">
<ele>768.470032</ele>
<time>2021-07-14T08:46:18.024Z</time>
</trkpt>
<trkpt lat="31.7728500" lon="35.1165700">
<ele>768.100037</ele>
<time>2021-07-14T08:46:18.024Z</time>
</trkpt>
<trkpt lat="31.7726200" lon="35.1166000">
<ele>767.420044</ele>
<time>2021-07-14T08:46:18.024Z</time>
</trkpt>
<trkpt lat="31.7723300" lon="35.1165500">
<ele>764.940002</ele>
<time>2021-07-14T08:46:18.024Z</time>
</trkpt>
<trkpt lat="31.7718400" lon="35.1165100">
<ele>761.950012</ele>
<time>2021-07-14T08:46:18.024Z</time>
</trkpt>
<trkpt lat="31.7716000" lon="35.1165000">
<ele>760.700012</ele>
<time>2021-07-14T08:46:18.024Z</time>
</trkpt>
<trkpt lat="31.7715000" lon="35.1164800">
<ele>760.959961</ele>
<time>2021-07-14T08:46:18.024Z</time>
</trkpt>
<trkpt lat="31.7711800" lon="35.1162900">
<ele>762.179993</ele>
<time>2021-07-14T08:46:18.024Z</time>
</trkpt>
<trkpt lat="31.7710000" lon="35.1161400">
<ele>763.029968</ele>
<time>2021-07-14T08:46:18.024Z</time>
</trkpt>
<trkpt lat="31.7710000" lon="35.1161300">
<ele>763.090027</ele>
<time>2021-07-14T08:46:18.024Z</time>
</trkpt>
<trkpt lat="31.7709600" lon="35.1161000">
<ele>763.610046</ele>
<time>2021-07-14T08:46:18.024Z</time>
</trkpt>
<trkpt lat="31.7708700" lon="35.1158900">
<ele>763.909973</ele>
<time>2021-07-14T08:46:18.024Z</time>
</trkpt>
<trkpt lat="31.7707900" lon="35.1156400">
<ele>763.299988</ele>
<time>2021-07-14T08:46:18.024Z</time>
</trkpt>
<trkpt lat="31.7706400" lon="35.1149200">
<ele>762.590027</ele>
<time>2021-07-14T08:46:18.024Z</time>
</trkpt>
<trkpt lat="31.7705300" lon="35.1146800">
<ele>763.209961</ele>
<time>2021-07-14T08:46:18.024Z</time>
</trkpt>
<trkpt lat="31.7703500" lon="35.1144500">
<ele>764.219971</ele>
<time>2021-07-14T08:46:18.024Z</time>
</trkpt>
<trkpt lat="31.7702000" lon="35.1143300">
<ele>762.750000</ele>
<time>2021-07-14T08:46:18.024Z</time>
</trkpt>
<trkpt lat="31.7699500" lon="35.1141600">
<ele>759.059998</ele>
<time>2021-07-14T08:46:18.024Z</time>
</trkpt>
<trkpt lat="31.7700400" lon="35.1139900">
<ele>759.159973</ele>
<time>2021-07-14T08:46:18.024Z</time>
</trkpt>
<trkpt lat="31.7710200" lon="35.1130800">
<ele>778.220032</ele>
<time>2021-07-14T08:46:18.024Z</time>
</trkpt>
<trkpt lat="31.7708200" lon="35.1127500">
<ele>776.979980</ele>
<time>2021-07-14T08:46:18.024Z</time>
</trkpt>
<trkpt lat="31.7704900" lon="35.1120500">
<ele>777.820007</ele>
<time>2021-07-14T08:46:18.024Z</time>
</trkpt>
<trkpt lat="31.7704200" lon="35.1119800">
<ele>777.620056</ele>
<time>2021-07-14T08:46:18.024Z</time>
</trkpt>
<trkpt lat="31.7703200" lon="35.1119500">
<ele>777.849976</ele>
<time>2021-07-14T08:46:18.024Z</time>
</trkpt>
<trkpt lat="31.7702300" lon="35.1119800">
<ele>777.849976</ele>
<time>2021-07-14T08:46:18.024Z</time>
</trkpt>
<trkpt lat="31.7701300" lon="35.1120500">
<ele>777.669983</ele>
<time>2021-07-14T08:46:18.024Z</time>
</trkpt>
<trkpt lat="31.7700500" lon="35.1121700">
<ele>777.849976</ele>
<time>2021-07-14T08:46:18.024Z</time>
</trkpt>
<trkpt lat="31.7699700" lon="35.1122400">
<ele>777.820007</ele>
<time>2021-07-14T08:46:18.024Z</time>
</trkpt>
<trkpt lat="31.7699000" lon="35.1122400">
<ele>777.849976</ele>
<time>2021-07-14T08:46:18.024Z</time>
</trkpt>
<trkpt lat="31.7695900" lon="35.1120900">
<ele>778.729980</ele>
<time>2021-07-14T08:46:18.024Z</time>
</trkpt>
<trkpt lat="31.7693000" lon="35.1120700">
<ele>775.880005</ele>
<time>2021-07-14T08:46:18.024Z</time>
</trkpt>
<trkpt lat="31.7695900" lon="35.1120900">
<ele>778.729980</ele>
<time>2021-07-14T08:46:18.024Z</time>
</trkpt>
<trkpt lat="31.7699000" lon="35.1122400">
<ele>777.849976</ele>
<time>2021-07-14T08:46:18.024Z</time>
</trkpt>
<trkpt lat="31.7699700" lon="35.1122400">
<ele>777.820007</ele>
<time>2021-07-14T08:46:18.024Z</time>
</trkpt>
<trkpt lat="31.7700500" lon="35.1121700">
<ele>777.849976</ele>
<time>2021-07-14T08:46:18.024Z</time>
</trkpt>
<trkpt lat="31.7701300" lon="35.1120500">
<ele>777.669983</ele>
<time>2021-07-14T08:46:18.024Z</time>
</trkpt>
<trkpt lat="31.7702300" lon="35.1119800">
<ele>777.849976</ele>
<time>2021-07-14T08:46:18.024Z</time>
</trkpt>
<trkpt lat="31.7703200" lon="35.1119500">
<ele>777.849976</ele>
<time>2021-07-14T08:46:18.024Z</time>
</trkpt>
<trkpt lat="31.7704200" lon="35.1119800">
<ele>777.620056</ele>
<time>2021-07-14T08:46:18.024Z</time>
</trkpt>
<trkpt lat="31.7704900" lon="35.1120500">
<ele>777.820007</ele>
<time>2021-07-14T08:46:18.024Z</time>
</trkpt>
<trkpt lat="31.7708200" lon="35.1127500">
<ele>776.979980</ele>
<time>2021-07-14T08:46:18.024Z</time>
</trkpt>
<trkpt lat="31.7710200" lon="35.1130800">
<ele>778.220032</ele>
<time>2021-07-14T08:46:18.024Z</time>
</trkpt>
<trkpt lat="31.7708800" lon="35.1124800">
<ele>777.329956</ele>
<time>2021-07-14T08:46:18.024Z</time>
</trkpt>
<trkpt lat="31.7708700" lon="35.1124800">
<ele>777.440002</ele>
<time>2021-07-14T08:46:18.024Z</time>
</trkpt>
<trkpt lat="31.7706800" lon="35.1117100">
<ele>772.300049</ele>
<time>2021-07-14T08:46:18.024Z</time>
</trkpt>
<trkpt lat="31.7705300" lon="35.1113700">
<ele>766.969971</ele>
<time>2021-07-14T08:46:18.024Z</time>
</trkpt>
<trkpt lat="31.7703800" lon="35.1111400">
<ele>764.719971</ele>
<time>2021-07-14T08:46:18.024Z</time>
</trkpt>
<trkpt lat="31.7699100" lon="35.1109200">
<ele>756.800049</ele>
<time>2021-07-14T08:46:18.024Z</time>
</trkpt>
<trkpt lat="31.7696200" lon="35.1107000">
<ele>748.940063</ele>
<time>2021-07-14T08:46:18.024Z</time>
</trkpt>
<trkpt lat="31.7698300" lon="35.1106500">
<ele>748.359985</ele>
<time>2021-07-14T08:46:18.024Z</time>
</trkpt>
<trkpt lat="31.7700500" lon="35.1105100">
<ele>746.710022</ele>
<time>2021-07-14T08:46:18.024Z</time>
</trkpt>
<trkpt lat="31.7703600" lon="35.1101700">
<ele>742.400024</ele>
<time>2021-07-14T08:46:18.024Z</time>
</trkpt>
<trkpt lat="31.7705000" lon="35.1100600">
<ele>741.960022</ele>
<time>2021-07-14T08:46:18.024Z</time>
</trkpt>
<trkpt lat="31.7705600" lon="35.1100100">
<ele>742.070007</ele>
<time>2021-07-14T08:46:18.024Z</time>
</trkpt>
<trkpt lat="31.7705400" lon="35.1099100">
<ele>741.150024</ele>
<time>2021-07-14T08:46:18.024Z</time>
</trkpt>
<trkpt lat="31.7705900" lon="35.1097100">
<ele>739.669983</ele>
<time>2021-07-14T08:46:18.024Z</time>
</trkpt>
<trkpt lat="31.7708100" lon="35.1092000">
<ele>737.850037</ele>
<time>2021-07-14T08:46:18.024Z</time>
</trkpt>
<trkpt lat="31.7708500" lon="35.1090300">
<ele>737.080017</ele>
<time>2021-07-14T08:46:18.024Z</time>
</trkpt>
<trkpt lat="31.7706800" lon="35.1091400">
<ele>736.650024</ele>
<time>2021-07-14T08:46:18.024Z</time>
</trkpt>
<trkpt lat="31.7705500" lon="35.1092000">
<ele>736.100037</ele>
<time>2021-07-14T08:46:18.024Z</time>
</trkpt>
<trkpt lat="31.7702700" lon="35.1092800">
<ele>729.649963</ele>
<time>2021-07-14T08:46:18.024Z</time>
</trkpt>
<trkpt lat="31.7699700" lon="35.1094300">
<ele>726.500000</ele>
<time>2021-07-14T08:46:18.024Z</time>
</trkpt>
<trkpt lat="31.7696700" lon="35.1096200">
<ele>729.939941</ele>
<time>2021-07-14T08:46:18.024Z</time>
</trkpt>
<trkpt lat="31.7695600" lon="35.1096700">
<ele>732.070007</ele>
<time>2021-07-14T08:46:18.024Z</time>
</trkpt>
<trkpt lat="31.7694300" lon="35.1096900">
<ele>733.619995</ele>
<time>2021-07-14T08:46:18.024Z</time>
</trkpt>
<trkpt lat="31.7690600" lon="35.1096100">
<ele>733.970032</ele>
<time>2021-07-14T08:46:18.024Z</time>
</trkpt>
<trkpt lat="31.7689800" lon="35.1095700">
<ele>732.090027</ele>
<time>2021-07-14T08:46:18.024Z</time>
</trkpt>
<trkpt lat="31.7688700" lon="35.1094700">
<ele>729.160034</ele>
<time>2021-07-14T08:46:18.024Z</time>
</trkpt>
<trkpt lat="31.7686700" lon="35.1090900">
<ele>720.900024</ele>
<time>2021-07-14T08:46:18.024Z</time>
</trkpt>
<trkpt lat="31.7685500" lon="35.1089200">
<ele>716.920044</ele>
<time>2021-07-14T08:46:18.024Z</time>
</trkpt>
<trkpt lat="31.7684300" lon="35.1088000">
<ele>711.400024</ele>
<time>2021-07-14T08:46:18.024Z</time>
</trkpt>
<trkpt lat="31.7680200" lon="35.1084800">
<ele>709.100037</ele>
<time>2021-07-14T08:46:18.024Z</time>
</trkpt>
<trkpt lat="31.7680100" lon="35.1084800">
<ele>709.339966</ele>
<time>2021-07-14T08:46:18.024Z</time>
</trkpt>
<trkpt lat="31.7672300" lon="35.1077900">
<ele>688.469971</ele>
<time>2021-07-14T08:46:18.024Z</time>
</trkpt>
<trkpt lat="31.7670600" lon="35.1076800">
<ele>686.640015</ele>
<time>2021-07-14T08:46:18.024Z</time>
</trkpt>
<trkpt lat="31.7669400" lon="35.1076300">
<ele>686.789978</ele>
<time>2021-07-14T08:46:18.024Z</time>
</trkpt>
<trkpt lat="31.7667900" lon="35.1075900">
<ele>687.059998</ele>
<time>2021-07-14T08:46:18.024Z</time>
</trkpt>
<trkpt lat="31.7665500" lon="35.1075900">
<ele>685.840027</ele>
<time>2021-07-14T08:46:18.024Z</time>
</trkpt>
<trkpt lat="31.7664100" lon="35.1076300">
<ele>684.940002</ele>
<time>2021-07-14T08:46:18.024Z</time>
</trkpt>
<trkpt lat="31.7662000" lon="35.1077200">
<ele>682.289978</ele>
<time>2021-07-14T08:46:18.024Z</time>
</trkpt>
<trkpt lat="31.7658900" lon="35.1079300">
<ele>680.910034</ele>
<time>2021-07-14T08:46:18.024Z</time>
</trkpt>
<trkpt lat="31.7653300" lon="35.1083800">
<ele>682.000000</ele>
<time>2021-07-14T08:46:18.024Z</time>
</trkpt>
<trkpt lat="31.7650900" lon="35.1084600">
<ele>677.919983</ele>
<time>2021-07-14T08:46:18.024Z</time>
</trkpt>
<trkpt lat="31.7643700" lon="35.1088800">
<ele>669.989990</ele>
<time>2021-07-14T08:46:18.024Z</time>
</trkpt>
<trkpt lat="31.7641900" lon="35.1090900">
<ele>670.550049</ele>
<time>2021-07-14T08:46:18.024Z</time>
</trkpt>
<trkpt lat="31.7640600" lon="35.1093200">
<ele>669.460022</ele>
<time>2021-07-14T08:46:18.024Z</time>
</trkpt>
<trkpt lat="31.7640000" lon="35.1094800">
<ele>669.179993</ele>
<time>2021-07-14T08:46:18.024Z</time>
</trkpt>
<trkpt lat="31.7637300" lon="35.1106600">
<ele>668.659973</ele>
<time>2021-07-14T08:46:18.024Z</time>
</trkpt>
<trkpt lat="31.7636700" lon="35.1108300">
<ele>667.109985</ele>
<time>2021-07-14T08:46:18.024Z</time>
</trkpt>
<trkpt lat="31.7633700" lon="35.1115600">
<ele>661.990051</ele>
<time>2021-07-14T08:46:18.024Z</time>
</trkpt>
<trkpt lat="31.7633500" lon="35.1117400">
<ele>663.220032</ele>
<time>2021-07-14T08:46:18.024Z</time>
</trkpt>
<trkpt lat="31.7633600" lon="35.1119900">
<ele>662.930054</ele>
<time>2021-07-14T08:46:18.024Z</time>
</trkpt>
<trkpt lat="31.7634500" lon="35.1126400">
<ele>653.579956</ele>
<time>2021-07-14T08:46:18.024Z</time>
</trkpt>
<trkpt lat="31.7635100" lon="35.1127500">
<ele>650.090027</ele>
<time>2021-07-14T08:46:18.024Z</time>
</trkpt>
<trkpt lat="31.7636100" lon="35.1128300">
<ele>647.820007</ele>
<time>2021-07-14T08:46:18.024Z</time>
</trkpt>
<trkpt lat="31.7637300" lon="35.1129100">
<ele>647.789978</ele>
<time>2021-07-14T08:46:18.024Z</time>
</trkpt>
<trkpt lat="31.7640400" lon="35.1129600">
<ele>648.119995</ele>
<time>2021-07-14T08:46:18.024Z</time>
</trkpt>
<trkpt lat="31.7644400" lon="35.1127600">
<ele>650.239990</ele>
<time>2021-07-14T08:46:18.024Z</time>
</trkpt>
<trkpt lat="31.7646500" lon="35.1127500">
<ele>655.210022</ele>
<time>2021-07-14T08:46:18.024Z</time>
</trkpt>
<trkpt lat="31.7646900" lon="35.1127600">
<ele>656.159973</ele>
<time>2021-07-14T08:46:18.024Z</time>
</trkpt>
<trkpt lat="31.7647700" lon="35.1128400">
<ele>658.669983</ele>
<time>2021-07-14T08:46:18.024Z</time>
</trkpt>
<trkpt lat="31.7648600" lon="35.1133000">
<ele>663.350037</ele>
<time>2021-07-14T08:46:18.024Z</time>
</trkpt>
<trkpt lat="31.7648600" lon="35.1132900">
<ele>663.320007</ele>
<time>2021-07-14T08:46:18.024Z</time>
</trkpt>
<trkpt lat="31.7650200" lon="35.1138600">
<ele>665.969971</ele>
<time>2021-07-14T08:46:18.024Z</time>
</trkpt>
<trkpt lat="31.7650900" lon="35.1139900">
<ele>668.080017</ele>
<time>2021-07-14T08:46:18.024Z</time>
</trkpt>
<trkpt lat="31.7652400" lon="35.1141600">
<ele>672.679993</ele>
<time>2021-07-14T08:46:18.024Z</time>
</trkpt>
<trkpt lat="31.7654100" lon="35.1143100">
<ele>674.549988</ele>
<time>2021-07-14T08:46:18.024Z</time>
</trkpt>
<trkpt lat="31.7654900" lon="35.1144000">
<ele>674.580017</ele>
<time>2021-07-14T08:46:18.024Z</time>
</trkpt>
<trkpt lat="31.7655500" lon="35.1145100">
<ele>674.659973</ele>
<time>2021-07-14T08:46:18.024Z</time>
</trkpt>
<trkpt lat="31.7655800" lon="35.1146400">
<ele>674.899963</ele>
<time>2021-07-14T08:46:18.024Z</time>
</trkpt>
<trkpt lat="31.7655800" lon="35.1147900">
<ele>674.239990</ele>
<time>2021-07-14T08:46:18.024Z</time>
</trkpt>
<trkpt lat="31.7655500" lon="35.1151000">
<ele>673.240051</ele>
<time>2021-07-14T08:46:18.024Z</time>
</trkpt>
<trkpt lat="31.7655900" lon="35.1154400">
<ele>673.519958</ele>
<time>2021-07-14T08:46:18.024Z</time>
</trkpt>
<trkpt lat="31.7656300" lon="35.1155900">
<ele>673.690002</ele>
<time>2021-07-14T08:46:18.024Z</time>
</trkpt>
<trkpt lat="31.7657000" lon="35.1157000">
<ele>674.809998</ele>
<time>2021-07-14T08:46:18.024Z</time>
</trkpt>
<trkpt lat="31.7658000" lon="35.1157700">
<ele>675.430054</ele>
<time>2021-07-14T08:46:18.024Z</time>
</trkpt>
<trkpt lat="31.7659100" lon="35.1157900">
<ele>673.030029</ele>
<time>2021-07-14T08:46:18.024Z</time>
</trkpt>
<trkpt lat="31.7661000" lon="35.1157900">
<ele>666.980042</ele>
<time>2021-07-14T08:46:18.024Z</time>
</trkpt>
<trkpt lat="31.7672500" lon="35.1157000">
<ele>663.350037</ele>
<time>2021-07-14T08:46:18.024Z</time>
</trkpt>
<trkpt lat="31.7675400" lon="35.1156400">
<ele>664.959961</ele>
<time>2021-07-14T08:46:18.024Z</time>
</trkpt>
<trkpt lat="31.7677800" lon="35.1155600">
<ele>659.130005</ele>
<time>2021-07-14T08:46:18.024Z</time>
</trkpt>
<trkpt lat="31.7687300" lon="35.1154300">
<ele>694.610046</ele>
<time>2021-07-14T08:46:18.024Z</time>
</trkpt>
<trkpt lat="31.7689600" lon="35.1154700">
<ele>699.080017</ele>
<time>2021-07-14T08:46:18.024Z</time>
</trkpt>
<trkpt lat="31.7690400" lon="35.1155000">
<ele>699.969971</ele>
<time>2021-07-14T08:46:18.024Z</time>
</trkpt>
<trkpt lat="31.7691100" lon="35.1155500">
<ele>699.950012</ele>
<time>2021-07-14T08:46:18.024Z</time>
</trkpt>
<trkpt lat="31.7691500" lon="35.1156200">
<ele>699.039978</ele>
<time>2021-07-14T08:46:18.024Z</time>
</trkpt>
<trkpt lat="31.7691900" lon="35.1157800">
<ele>696.500000</ele>
<time>2021-07-14T08:46:18.024Z</time>
</trkpt>
<trkpt lat="31.7693800" lon="35.1167600">
<ele>696.059998</ele>
<time>2021-07-14T08:46:18.024Z</time>
</trkpt>
<trkpt lat="31.7694800" lon="35.1170000">
<ele>697.189941</ele>
<time>2021-07-14T08:46:18.024Z</time>
</trkpt>
<trkpt lat="31.7696600" lon="35.1172700">
<ele>701.229980</ele>
<time>2021-07-14T08:46:18.024Z</time>
</trkpt>
<trkpt lat="31.7698600" lon="35.1175100">
<ele>705.190002</ele>
<time>2021-07-14T08:46:18.024Z</time>
</trkpt>
<trkpt lat="31.7705900" lon="35.1182900">
<ele>700.079956</ele>
<time>2021-07-14T08:46:18.024Z</time>
</trkpt>
<trkpt lat="31.7706000" lon="35.1183300">
<ele>699.989990</ele>
<time>2021-07-14T08:46:18.024Z</time>
</trkpt>
<trkpt lat="31.7706000" lon="35.1183200">
<ele>700.059937</ele>
<time>2021-07-14T08:46:18.024Z</time>
</trkpt>
<trkpt lat="31.7706200" lon="35.1183800">
<ele>700.260010</ele>
<time>2021-07-14T08:46:18.024Z</time>
</trkpt>
<trkpt lat="31.7706200" lon="35.1184700">
<ele>700.010010</ele>
<time>2021-07-14T08:46:18.024Z</time>
</trkpt>
<trkpt lat="31.7705300" lon="35.1189400">
<ele>695.250000</ele>
<time>2021-07-14T08:46:18.024Z</time>
</trkpt>
<trkpt lat="31.7705000" lon="35.1192900">
<ele>693.760010</ele>
<time>2021-07-14T08:46:18.024Z</time>
</trkpt>
<trkpt lat="31.7705400" lon="35.1197500">
<ele>692.359985</ele>
<time>2021-07-14T08:46:18.024Z</time>
</trkpt>
<trkpt lat="31.7705200" lon="35.1198900">
<ele>690.850037</ele>
<time>2021-07-14T08:46:18.024Z</time>
</trkpt>
<trkpt lat="31.7705000" lon="35.1199600">
<ele>689.860046</ele>
<time>2021-07-14T08:46:18.024Z</time>
</trkpt>
<trkpt lat="31.7704400" lon="35.1200300">
<ele>687.960022</ele>
<time>2021-07-14T08:46:18.024Z</time>
</trkpt>
<trkpt lat="31.7703600" lon="35.1200800">
<ele>685.900024</ele>
<time>2021-07-14T08:46:18.024Z</time>
</trkpt>
<trkpt lat="31.7700700" lon="35.1201300">
<ele>676.619995</ele>
<time>2021-07-14T08:46:18.024Z</time>
</trkpt>
<trkpt lat="31.7698400" lon="35.1201400">
<ele>673.710022</ele>
<time>2021-07-14T08:46:18.024Z</time>
</trkpt>
<trkpt lat="31.7695400" lon="35.1202000">
<ele>673.900024</ele>
<time>2021-07-14T08:46:18.024Z</time>
</trkpt>
<trkpt lat="31.7686200" lon="35.1204700">
<ele>666.889954</ele>
<time>2021-07-14T08:46:18.024Z</time>
</trkpt>
<trkpt lat="31.7685400" lon="35.1205100">
<ele>667.600037</ele>
<time>2021-07-14T08:46:18.024Z</time>
</trkpt>
<trkpt lat="31.7684600" lon="35.1206100">
<ele>669.130005</ele>
<time>2021-07-14T08:46:18.024Z</time>
</trkpt>
<trkpt lat="31.7684100" lon="35.1207300">
<ele>670.329956</ele>
<time>2021-07-14T08:46:18.024Z</time>
</trkpt>
<trkpt lat="31.7684100" lon="35.1208600">
<ele>671.690002</ele>
<time>2021-07-14T08:46:18.024Z</time>
</trkpt>
<trkpt lat="31.7684600" lon="35.1209500">
<ele>672.369995</ele>
<time>2021-07-14T08:46:18.024Z</time>
</trkpt>
<trkpt lat="31.7685000" lon="35.1210100">
<ele>672.709961</ele>
<time>2021-07-14T08:46:18.024Z</time>
</trkpt>
<trkpt lat="31.7686000" lon="35.1210800">
<ele>672.989990</ele>
<time>2021-07-14T08:46:18.024Z</time>
</trkpt>
<trkpt lat="31.7697200" lon="35.1217600">
<ele>660.950012</ele>
<time>2021-07-14T08:46:18.024Z</time>
</trkpt>
<trkpt lat="31.7701500" lon="35.1219600">
<ele>667.890015</ele>
<time>2021-07-14T08:46:18.024Z</time>
</trkpt>
<trkpt lat="31.7704900" lon="35.1221500">
<ele>668.460022</ele>
<time>2021-07-14T08:46:18.024Z</time>
</trkpt>
<trkpt lat="31.7706100" lon="35.1222400">
<ele>667.270020</ele>
<time>2021-07-14T08:46:18.024Z</time>
</trkpt>
<trkpt lat="31.7712600" lon="35.1225900">
<ele>663.740051</ele>
<time>2021-07-14T08:46:18.024Z</time>
</trkpt>
<trkpt lat="31.7716200" lon="35.1228600">
<ele>659.089966</ele>
<time>2021-07-14T08:46:18.024Z</time>
</trkpt>
<trkpt lat="31.7716700" lon="35.1229500">
<ele>658.600037</ele>
<time>2021-07-14T08:46:18.024Z</time>
</trkpt>
<trkpt lat="31.7717000" lon="35.1230400">
<ele>657.950012</ele>
<time>2021-07-14T08:46:18.024Z</time>
</trkpt>
<trkpt lat="31.7717000" lon="35.1230300">
<ele>658.100037</ele>
<time>2021-07-14T08:46:18.024Z</time>
</trkpt>
<trkpt lat="31.7716800" lon="35.1231900">
<ele>655.470032</ele>
<time>2021-07-14T08:46:18.024Z</time>
</trkpt>
<trkpt lat="31.7716300" lon="35.1233300">
<ele>652.390015</ele>
<time>2021-07-14T08:46:18.024Z</time>
</trkpt>
<trkpt lat="31.7715700" lon="35.1234200">
<ele>650.729980</ele>
<time>2021-07-14T08:46:18.024Z</time>
</trkpt>
<trkpt lat="31.7710300" lon="35.1239900">
<ele>641.759949</ele>
<time>2021-07-14T08:46:18.024Z</time>
</trkpt>
<trkpt lat="31.7706400" lon="35.1245300">
<ele>636.569946</ele>
<time>2021-07-14T08:46:18.024Z</time>
</trkpt>
<trkpt lat="31.7703200" lon="35.1250300">
<ele>634.770020</ele>
<time>2021-07-14T08:46:18.024Z</time>
</trkpt>
<trkpt lat="31.7702100" lon="35.1252500">
<ele>634.159973</ele>
<time>2021-07-14T08:46:18.024Z</time>
</trkpt>
<trkpt lat="31.7701400" lon="35.1254900">
<ele>633.180054</ele>
<time>2021-07-14T08:46:18.024Z</time>
</trkpt>
<trkpt lat="31.7701400" lon="35.1256300">
<ele>633.260010</ele>
<time>2021-07-14T08:46:18.024Z</time>
</trkpt>
<trkpt lat="31.7701900" lon="35.1258400">
<ele>633.719971</ele>
<time>2021-07-14T08:46:18.024Z</time>
</trkpt>
<trkpt lat="31.7702800" lon="35.1259800">
<ele>634.440002</ele>
<time>2021-07-14T08:46:18.024Z</time>
</trkpt>
<trkpt lat="31.7704600" lon="35.1261300">
<ele>634.489990</ele>
<time>2021-07-14T08:46:18.024Z</time>
</trkpt>
<trkpt lat="31.7706200" lon="35.1262300">
<ele>632.010010</ele>
<time>2021-07-14T08:46:18.024Z</time>
</trkpt>
<trkpt lat="31.7712200" lon="35.1263900">
<ele>621.539978</ele>
<time>2021-07-14T08:46:18.024Z</time>
</trkpt>
<trkpt lat="31.7715300" lon="35.1263700">
<ele>626.409973</ele>
<time>2021-07-14T08:46:18.024Z</time>
</trkpt>
<trkpt lat="31.7720400" lon="35.1264300">
<ele>631.619995</ele>
<time>2021-07-14T08:46:18.024Z</time>
</trkpt>
<trkpt lat="31.7724500" lon="35.1265400">
<ele>631.410034</ele>
<time>2021-07-14T08:46:18.024Z</time>
</trkpt>
<trkpt lat="31.7727700" lon="35.1266600">
<ele>626.330017</ele>
<time>2021-07-14T08:46:18.024Z</time>
</trkpt>
<trkpt lat="31.7729200" lon="35.1267400">
<ele>629.110046</ele>
<time>2021-07-14T08:46:18.024Z</time>
</trkpt>
<trkpt lat="31.7730800" lon="35.1267900">
<ele>633.250000</ele>
<time>2021-07-14T08:46:18.024Z</time>
</trkpt>
<trkpt lat="31.7732400" lon="35.1267800">
<ele>641.020020</ele>
<time>2021-07-14T08:46:18.024Z</time>
</trkpt>
<trkpt lat="31.7734000" lon="35.1268000">
<ele>646.940002</ele>
<time>2021-07-14T08:46:18.024Z</time>
</trkpt>
<trkpt lat="31.7735200" lon="35.1268400">
<ele>650.179993</ele>
<time>2021-07-14T08:46:18.024Z</time>
</trkpt>
<trkpt lat="31.7735900" lon="35.1269300">
<ele>651.320007</ele>
<time>2021-07-14T08:46:18.024Z</time>
</trkpt>
<trkpt lat="31.7736300" lon="35.1271400">
<ele>649.050049</ele>
<time>2021-07-14T08:46:18.024Z</time>
</trkpt>
<trkpt lat="31.7736100" lon="35.1273600">
<ele>645.950012</ele>
<time>2021-07-14T08:46:18.024Z</time>
</trkpt>
<trkpt lat="31.7735400" lon="35.1276300">
<ele>641.300049</ele>
<time>2021-07-14T08:46:18.024Z</time>
</trkpt>
<trkpt lat="31.7735500" lon="35.1278700">
<ele>641.700012</ele>
<time>2021-07-14T08:46:18.024Z</time>
</trkpt>
<trkpt lat="31.7736200" lon="35.1279500">
<ele>645.299988</ele>
<time>2021-07-14T08:46:18.024Z</time>
</trkpt>
<trkpt lat="31.7736100" lon="35.1279500">
<ele>644.940002</ele>
<time>2021-07-14T08:46:18.024Z</time>
</trkpt>
<trkpt lat="31.7739000" lon="35.1282300">
<ele>652.780029</ele>
<time>2021-07-14T08:46:18.024Z</time>
</trkpt>
<trkpt lat="31.7741100" lon="35.1284100">
<ele>656.540039</ele>
<time>2021-07-14T08:46:18.024Z</time>
</trkpt>
<trkpt lat="31.7748100" lon="35.1287200">
<ele>663.839966</ele>
<time>2021-07-14T08:46:18.024Z</time>
</trkpt>
<trkpt lat="31.7750500" lon="35.1287700">
<ele>666.669983</ele>
<time>2021-07-14T08:46:18.024Z</time>
</trkpt>
<trkpt lat="31.7759500" lon="35.1288900">
<ele>664.229980</ele>
<time>2021-07-14T08:46:18.024Z</time>
</trkpt>
<trkpt lat="31.7762400" lon="35.1290000">
<ele>663.510010</ele>
<time>2021-07-14T08:46:18.024Z</time>
</trkpt>
<trkpt lat="31.7767800" lon="35.1288100">
<ele>667.160034</ele>
<time>2021-07-14T08:46:18.024Z</time>
</trkpt>
<trkpt lat="31.7769800" lon="35.1287900">
<ele>667.690002</ele>
<time>2021-07-14T08:46:18.024Z</time>
</trkpt>
<trkpt lat="31.7770200" lon="35.1287500">
<ele>668.769958</ele>
<time>2021-07-14T08:46:18.024Z</time>
</trkpt>
<trkpt lat="31.7770400" lon="35.1287100">
<ele>669.649963</ele>
<time>2021-07-14T08:46:18.024Z</time>
</trkpt>
<trkpt lat="31.7770400" lon="35.1286900">
<ele>670.059998</ele>
<time>2021-07-14T08:46:18.024Z</time>
</trkpt>
<trkpt lat="31.7770200" lon="35.1285700">
<ele>672.390015</ele>
<time>2021-07-14T08:46:18.024Z</time>
</trkpt>
<trkpt lat="31.7769800" lon="35.1285000">
<ele>673.770020</ele>
<time>2021-07-14T08:46:18.024Z</time>
</trkpt>
<trkpt lat="31.7767800" lon="35.1283900">
<ele>678.929993</ele>
<time>2021-07-14T08:46:18.024Z</time>
</trkpt>
<trkpt lat="31.7766600" lon="35.1283000">
<ele>683.659973</ele>
<time>2021-07-14T08:46:18.024Z</time>
</trkpt>
<trkpt lat="31.7764700" lon="35.1280100">
<ele>690.580017</ele>
<time>2021-07-14T08:46:18.024Z</time>
</trkpt>
<trkpt lat="31.7764000" lon="35.1279200">
<ele>692.420044</ele>
<time>2021-07-14T08:46:18.024Z</time>
</trkpt>
<trkpt lat="31.7763000" lon="35.1278200">
<ele>692.050049</ele>
<time>2021-07-14T08:46:18.024Z</time>
</trkpt>
<trkpt lat="31.7762100" lon="35.1277700">
<ele>690.650024</ele>
<time>2021-07-14T08:46:18.024Z</time>
</trkpt>
<trkpt lat="31.7760800" lon="35.1277500">
<ele>688.549988</ele>
<time>2021-07-14T08:46:18.024Z</time>
</trkpt>
<trkpt lat="31.7757100" lon="35.1277800">
<ele>687.850037</ele>
<time>2021-07-14T08:46:18.024Z</time>
</trkpt>
<trkpt lat="31.7755600" lon="35.1277400">
<ele>689.510010</ele>
<time>2021-07-14T08:46:18.024Z</time>
</trkpt>
<trkpt lat="31.7755200" lon="35.1276200">
<ele>691.690002</ele>
<time>2021-07-14T08:46:18.024Z</time>
</trkpt>
<trkpt lat="31.7755400" lon="35.1272100">
<ele>696.000000</ele>
<time>2021-07-14T08:46:18.024Z</time>
</trkpt>
<trkpt lat="31.7755400" lon="35.1272100">
<ele>696.000000</ele>
<time>2021-07-14T08:46:18.024Z</time>
</trkpt>
<trkpt lat="31.7755500" lon="35.1272100">
<ele>696.000000</ele>
<time>2021-07-14T08:46:18.024Z</time>
</trkpt>
<trkpt lat="31.7755700" lon="35.1267600">
<ele>696.280029</ele>
<time>2021-07-14T08:46:18.024Z</time>
</trkpt>
<trkpt lat="31.7755700" lon="35.1267600">
<ele>696.280029</ele>
<time>2021-07-14T08:46:18.024Z</time>
</trkpt>
<trkpt lat="31.7755700" lon="35.1267600">
<ele>696.280029</ele>
<time>2021-07-14T08:46:18.024Z</time>
</trkpt>
<trkpt lat="31.7755700" lon="35.1267400">
<ele>696.280029</ele>
<time>2021-07-14T08:46:18.024Z</time>
</trkpt>
<trkpt lat="31.7755500" lon="35.1265200">
<ele>696.410034</ele>
<time>2021-07-14T08:46:18.024Z</time>
</trkpt>
<trkpt lat="31.7756500" lon="35.1260000">
<ele>693.280029</ele>
<time>2021-07-14T08:46:18.024Z</time>
</trkpt>
<trkpt lat="31.7757400" lon="35.1258300">
<ele>691.299988</ele>
<time>2021-07-14T08:46:18.024Z</time>
</trkpt>
<trkpt lat="31.7756400" lon="35.1257600">
<ele>690.000000</ele>
<time>2021-07-14T08:46:18.024Z</time>
</trkpt>
<trkpt lat="31.7747100" lon="35.1251700">
<ele>699.570007</ele>
<time>2021-07-14T08:46:18.024Z</time>
</trkpt>
<trkpt lat="31.7747100" lon="35.1251700">
<ele>699.570007</ele>
<time>2021-07-14T08:46:18.024Z</time>
</trkpt>
</trkseg>
</trk>
</gpx>
